GFSWCAN_con_lsi_087.txt.gz
Lid_Strength_Index
3 3 3 3 3 2 2 2 2 2 2 2 3 3 2 1 1 1 2 1 5 8 7 5 5 7 6 8 10 8 9 9 10 12 13 13 13 12 13 11 13 13 15 15 14 16 18 8 8 12 10 7 8 7
3 3 3 3 3 3 3 3 3 2 3 3 3 3 3 2 1 1 4 2 2 7 7 4 4 3 5 5 7 7 8 9 8 10 11 11 13 13 12 15 10 13 11 13 12 13 8 6 7 6 6 7 7 7
2 2 2 2 2 3 3 3 3 3 3 3 3 2 2 2 2 2 4 3 4 7 8 7 7 4 3 4 3 9 7 6 7 6 9 11 13 11 14 12 11 10 8 11 11 8 8 7 6 5 5 6 6 6
2 2 2 1 1 1 2 2 3 3 3 3 3 3 2 2 2 2 5 3 5 8 11 9 5 6 3 4 4 4 5 4 5 6 9 10 12 9 11 10 11 9 8 9 10 8 7 6 6 5 6 6 6 6
2 2 2 2 2 2 2 1 1 2 2 2 2 2 2 2 2 3 4 3 4 6 10 9 6 5 4 5 5 5 5 6 7 8 10 11 9 9 9 10 10 8 9 10 11 7 7 7 5 5 6 6 7 6
1 2 1 2 2 1 1 1 1 1 1 1 1 1 1 2 2 4 7 5 3 4 8 11 6 7 6 5 6 6 6 6 7 8 9 8 6 8 12 12 9 7 6 6 7 5 6 5 6 5 5 7 8 8
1 1 1 1 1 1 1 1 1 1 1 1 1 1 1 1 2 7 8 5 3 4 9 10 10 7 6 6 7 7 6 6 7 9 9 9 8 8 11 13 9 7 6 6 5 5 7 5 6 5 7 9 10 11
1 1 1 1 1 1 1 1 1 1 1 1 1 1 1 1 1 5 3 2 3 5 7 11 11 8 6 9 9 6 8 7 8 9 9 10 9 9 12 9 8 7 7 6 6 5 5 5 5 7 9 10 12 14
1 1 1 1 1 1 1 1 1 1 1 1 1 0 1 4 8 4 1 1 1 5 9 10 12 12 6 8 7 8 7 11 8 10 10 9 10 12 10 8 8 8 8 7 6 6 6 6 6 7 10 11 13 14
1 1 1 1 2 1 1 1 0 0 0 0 2 6 9 6 1 1 3 6 6 5 7 10 8 10 7 8 9 9 9 11 12 11 8 11 11 9 9 9 9 9 9 8 8 7 7 7 9 10 12 13 14 15
1 1 2 1 1 1 1 1 0 0 1 4 8 7 3 1 3 6 9 9 9 11 9 9 8 9 7 10 10 8 10 10 13 11 11 12 13 10 10 10 10 9 9 9 9 9 9 9 9 12 13 14 15 15
1 2 2 1 1 1 1 1 1 2 3 3 3 3 4 6 8 9 11 9 10 11 9 10 9 8 8 6 9 9 11 10 14 10 12 14 13 11 11 11 11 11 10 10 11 12 12 12 11 13 14 15 16 17
2 2 2 2 2 1 1 1 1 1 2 4 7 9 9 12 13 14 14 12 11 10 9 9 10 8 8 7 9 10 12 13 9 12 13 14 13 12 12 12 12 12 12 12 13 12 13 14 14 15 16 17 17 18
2 2 2 2 2 2 1 3 3 4 6 10 12 17 17 19 16 16 14 12 11 10 9 9 10 10 9 10 10 12 10 10 14 15 16 15 14 13 13 13 13 14 14 14 14 14 15 16 16 16 17 17 19 20
2 2 2 2 3 3 3 4 5 8 10 14 14 19 18 14 15 14 14 12 13 11 9 9 9 9 10 11 11 11 13 16 17 18 16 15 14 14 15 15 15 15 15 16 16 17 17 17 18 18 18 18 19 20
2 3 4 3 3 3 5 6 7 8 11 14 17 18 17 17 18 17 17 16 13 13 11 9 10 13 14 13 15 18 17 19 18 16 15 15 16 16 16 16 16 16 16 17 17 17 18 18 19 20 20 20 21 21
3 6 3 3 5 5 5 9 10 12 14 16 19 17 18 18 19 18 17 16 13 12 13 13 17 17 13 16 19 17 20 18 16 16 15 15 16 16 16 16 16 16 17 17 18 18 19 19 19 21 22 22 21 22
7 6 3 3 5 7 9 10 12 14 18 17 19 18 17 17 18 18 17 15 15 14 15 17 15 19 21 21 21 18 17 16 16 17 17 17 17 16 16 17 17 17 17 18 18 18 19 20 21 21 21 21 21 22
6 5 4 5 7 10 12 12 13 18 18 17 17 17 17 17 17 17 17 16 15 15 16 18 21 23 23 20 20 19 18 17 18 18 18 18 18 18 18 18 18 18 19 18 19 19 19 19 20 20 21 22 23 23
4 4 4 5 7 12 14 14 12 16 18 18 17 18 18 18 18 18 18 17 17 19 21 22 23 21 21 20 19 18 16 16 17 19 20 19 18 18 19 19 19 19 19 19 20 20 20 21 21 21 21 22 23 24
7 7 6 7 10 11 12 14 15 15 16 17 16 17 19 18 19 20 20 18 20 21 23 21 21 20 19 18 18 17 18 17 18 18 19 20 19 19 19 19 19 19 20 21 22 22 22 23 22 22 23 23 23 23
10 7 11 9 11 10 11 12 13 14 15 15 16 17 20 22 22 21 19 22 22 22 21 20 21 20 20 21 20 19 18 19 19 19 19 19 20 20 20 20 20 22 22 22 22 22 23 22 22 22 23 23 23 23
10 11 13 13 16 16 15 11 16 14 19 16 17 20 21 22 19 18 23 22 22 20 20 20 19 19 20 20 19 19 19 19 20 20 20 20 21 20 21 20 20 21 22 22 21 22 23 23 23 23 23 23 24 24
13 18 21 20 18 22 18 20 15 16 18 17 18 21 20 20 19 22 25 23 22 21 21 21 20 21 21 21 22 22 20 20 20 21 20 21 22 22 21 21 21 21 20 21 21 22 23 23 23 23 24 24 24 25
20 23 22 25 22 24 27 26 24 21 23 22 24 25 24 20 25 26 26 24 23 23 23 21 21 22 22 22 22 22 20 20 21 22 21 20 21 21 21 22 21 20 20 21 22 23 23 23 23 24 24 24 25 26
27 26 25 26 26 25 24 29 28 28 27 27 25 25 24 25 27 26 23 22 22 21 21 21 21 21 22 21 22 22 21 19 19 21 21 20 19 20 21 22 22 22 20 20 21 22 23 23 23 24 25 25 26 26
29 30 22 21 21 23 28 27 25 27 30 30 29 30 29 32 31 24 20 20 21 20 19 19 19 20 21 21 21 20 20 20 21 21 20 21 21 21 20 21 22 22 20 20 20 21 22 23 23 24 25 25 24 24
25 24 29 29 28 25 33 31 31 30 28 23 27 33 34 32 27 22 21 19 19 19 19 19 19 19 20 20 20 19 19 19 19 19 19 20 21 22 22 22 21 21 22 21 21 21 21 22 23 24 24 24 26 28
28 27 26 32 29 28 27 30 28 24 23 26 31 29 26 22 22 20 18 17 17 18 19 19 20 19 19 20 21 21 21 20 19 21 22 22 21 22 22 22 22 21 20 20 20 22 22 23 23 23 24 24 27 29
28 25 29 32 30 29 28 27 26 27 24 22 20 20 21 21 19 18 17 17 18 20 22 22 22 21 22 21 22 21 22 23 22 21 22 22 21 22 23 22 23 23 21 21 22 22 22 24 24 26 25 26 25 25
25 26 28 27 27 25 27 31 31 29 28 26 28 26 24 23 20 20 20 20 20 21 20 21 21 23 21 22 22 21 22 22 24 22 22 22 23 23 24 25 25 24 23 23 23 24 24 25 24 24 24 24 26 26
31 33 29 29 27 25 26 30 31 29 30 26 28 30 28 26 27 22 20 21 20 20 22 22 20 21 24 25 25 24 25 25 25 26 24 24 24 26 26 25 26 24 24 24 25 25 25 24 24 24 24 25 26 27
33 33 32 29 28 28 26 26 27 27 28 29 29 31 31 27 27 22 20 20 20 21 21 22 23 24 25 25 25 26 29 27 26 23 26 27 28 26 26 26 25 24 24 24 25 25 25 25 25 25 26 26 27 28

GFSWCAN_con_lsi_090.txt.gz
Lid_Strength_Index
3 3 3 3 3 3 2 2 2 2 1 1 1 1 1 1 1 2 3 0 2 6 4 3 4 6 5 6 8 7 8 8 9 12 11 12 12 10 11 9 12 13 14 14 13 16 17 6 7 12 8 6 5 5
3 3 3 3 3 3 3 3 2 2 2 2 2 2 1 1 1 1 4 1 1 4 4 2 2 1 2 3 5 5 7 8 7 10 9 8 11 9 10 13 8 12 9 11 11 11 6 6 6 5 4 6 5 5
3 3 3 3 3 3 3 3 3 3 2 2 2 2 2 2 1 2 3 2 3 5 5 5 5 2 1 1 1 7 6 5 6 5 7 8 11 8 12 11 10 8 7 9 9 7 6 5 4 4 4 5 5 5
2 2 2 2 2 2 2 2 2 3 3 3 2 3 2 2 2 2 4 2 4 6 9 7 2 3 1 2 2 3 4 4 4 5 9 10 11 7 9 9 9 7 7 8 8 7 6 5 4 4 4 5 4 4
2 2 2 2 2 2 2 2 2 2 2 2 3 3 3 2 2 2 3 2 2 5 9 7 4 3 3 3 4 4 5 5 6 8 9 10 7 8 7 8 9 6 7 9 10 6 6 5 4 4 4 5 5 6
2 2 1 1 1 1 2 2 2 2 1 2 2 2 2 2 3 4 8 4 2 2 7 10 5 5 4 4 5 5 5 6 6 8 9 7 5 7 11 11 7 6 5 4 6 4 4 4 4 3 4 5 7 7
1 1 1 1 1 1 1 1 1 1 1 1 1 1 2 2 3 7 7 4 2 3 7 9 8 6 4 5 5 6 5 6 7 8 9 8 7 7 10 11 7 6 5 5 4 4 5 4 5 4 4 7 8 9
1 1 1 1 1 1 1 1 1 1 1 1 1 1 1 1 3 5 2 2 2 5 6 10 9 8 5 8 9 6 8 7 8 9 8 8 7 8 11 8 7 6 5 5 5 4 4 3 4 4 5 6 8 9
1 1 1 1 1 1 1 1 1 1 1 1 1 1 2 3 7 5 1 2 1 4 8 9 10 12 5 7 7 7 7 11 7 10 9 7 9 12 8 7 7 6 7 7 6 5 4 5 5 4 5 7 8 10
1 1 1 1 1 1 1 1 1 1 1 1 3 8 9 6 1 1 4 6 6 5 6 9 6 10 6 7 9 9 8 10 12 10 7 10 10 7 7 7 7 7 7 7 8 8 7 7 5 6 7 7 8 9
1 1 1 1 1 1 0 0 0 0 1 5 8 7 3 1 3 6 9 9 8 10 8 7 7 9 6 9 10 7 10 10 12 10 11 12 12 10 10 9 8 8 8 8 7 8 9 9 8 7 8 9 10 10
1 1 1 1 1 0 0 0 1 2 2 3 3 2 3 5 7 9 10 9 9 10 8 9 8 7 7 5 9 8 11 10 13 8 12 13 13 12 11 11 10 9 9 9 10 10 10 11 10 8 10 10 12 13
2 2 2 1 2 1 1 1 1 1 1 3 5 8 7 10 12 12 13 12 11 9 8 8 9 7 9 7 9 10 12 12 8 12 13 13 12 11 11 11 11 10 10 11 11 12 12 13 12 12 14 15 15 16
2 2 2 1 3 3 3 3 2 3 4 8 10 14 12 14 12 12 11 10 10 7 7 7 8 8 8 9 9 12 10 9 13 14 14 13 13 12 12 12 12 13 13 13 13 13 14 15 15 15 15 16 17 18
2 3 3 3 3 3 3 4 5 6 9 11 11 15 14 13 12 12 11 11 11 10 7 8 7 7 9 10 9 10 13 14 14 15 14 14 13 13 13 13 13 14 14 14 14 15 16 16 17 17 17 17 18 19
2 2 4 3 3 4 5 5 6 7 10 13 14 15 13 12 14 14 15 14 12 12 8 7 9 10 11 10 12 14 14 16 15 14 14 13 14 14 14 14 15 15 15 15 15 15 16 17 18 19 19 19 19 19
3 4 3 4 5 6 5 7 8 11 13 15 16 14 14 15 16 15 14 14 12 11 11 9 12 14 11 14 17 15 16 15 14 14 13 14 15 15 14 15 15 16 16 16 16 17 17 17 18 19 20 21 20 21
4 3 3 4 5 6 7 8 11 13 16 15 16 16 15 15 15 15 14 13 11 11 12 15 13 17 18 19 18 16 15 14 14 15 15 15 15 15 15 16 16 16 17 17 17 17 17 18 19 20 20 20 21 21
4 3 4 4 5 7 10 11 11 16 15 14 14 15 15 15 15 14 14 14 13 12 14 16 19 20 20 18 18 17 16 15 16 16 16 16 16 16 17 17 17 17 17 17 17 18 18 18 18 19 20 20 22 22
5 5 5 6 5 9 12 12 10 14 16 16 15 16 16 17 16 15 16 15 15 17 19 20 20 19 19 18 17 17 15 14 14 16 17 16 16 17 17 17 18 18 18 19 19 19 20 20 20 20 20 21 22 23
4 5 5 5 7 8 10 12 13 13 14 15 15 15 17 16 17 18 18 16 19 20 21 19 19 18 18 17 16 16 16 15 16 15 16 17 17 17 17 17 17 17 18 19 20 20 21 21 21 20 21 22 22 22
6 6 6 6 9 9 10 9 11 11 12 14 14 15 17 18 18 19 17 20 21 21 20 19 19 19 18 19 18 17 17 16 16 16 17 16 17 17 18 17 18 19 19 19 20 20 21 20 20 21 21 22 21 22
9 8 9 9 12 12 13 9 13 12 15 15 14 17 18 18 18 16 20 20 20 19 18 18 18 18 18 18 18 18 17 17 17 17 18 18 18 18 18 18 18 19 20 20 19 20 20 20 20 20 20 21 21 22
12 16 16 16 13 16 13 15 13 14 14 15 17 19 19 18 16 19 22 21 20 18 19 19 18 18 18 19 19 19 18 17 18 18 18 18 19 20 19 19 19 19 19 19 19 20 20 20 20 20 20 21 21 21
16 20 17 19 17 18 19 19 19 18 20 19 20 21 20 17 21 22 23 21 20 20 19 19 19 19 19 19 19 19 18 17 18 19 18 17 18 18 19 19 19 19 18 19 19 19 20 20 20 20 20 21 21 22
23 21 20 20 19 19 19 20 21 20 19 20 21 19 17 19 22 23 20 19 19 18 18 18 18 18 19 18 19 19 19 16 16 19 19 18 17 17 18 19 19 20 18 18 18 19 20 19 20 20 21 21 22 21
22 22 20 19 18 19 20 20 19 20 22 22 21 22 21 24 24 21 18 18 18 18 17 17 17 18 18 18 18 18 17 18 18 19 18 18 18 18 18 18 19 19 17 17 18 18 19 20 20 20 21 20 20 20
20 20 24 23 22 21 24 23 23 23 22 20 20 25 25 24 22 19 17 16 16 16 16 16 16 16 17 17 16 16 16 15 16 16 16 17 17 17 18 18 18 18 18 17 17 17 17 18 19 19 19 20 21 19
21 20 21 27 24 23 23 23 22 21 20 20 21 22 21 19 17 16 16 15 14 15 16 17 17 16 16 16 16 17 16 16 17 18 18 18 17 18 17 16 16 16 15 16 17 17 17 17 17 17 18 18 20 20
22 19 22 24 25 24 22 20 21 20 18 18 18 18 18 18 17 15 15 15 16 17 17 17 16 15 16 16 17 17 17 17 17 16 17 18 18 17 17 17 16 16 15 16 17 18 18 19 19 19 19 20 19 19
19 18 21 21 22 20 20 20 18 18 18 18 17 18 19 18 17 17 17 16 16 15 15 15 16 17 16 16 16 16 18 17 18 18 17 17 17 17 17 18 17 16 16 16 17 17 18 18 17 18 18 19 21 19
21 21 22 23 21 19 18 18 17 18 17 17 18 18 19 17 19 17 17 16 14 15 18 16 16 18 18 18 18 18 19 18 18 18 18 17 18 18 18 18 17 16 16 17 17 17 19 19 17 18 18 20 20 21
21 20 19 20 20 19 19 18 19 19 18 18 19 20 20 18 20 18 16 17 15 16 16 17 17 17 18 18 18 19 19 19 21 20 22 22 23 20 18 17 17 17 18 17 17 18 19 21 19 20 21 21 21 22

GFSWCAN_con_lsi_093.txt.gz
Lid_Strength_Index
2 2 3 3 3 2 2 2 1 1 1 1 1 1 1 0 0 1 1 -1 2 5 4 3 3 4 5 5 8 6 8 7 9 12 11 11 11 10 10 9 11 13 14 14 13 16 16 6 7 10 7 5 5 5
3 3 3 3 3 3 3 3 2 2 2 2 2 1 1 1 0 0 4 -0 -1 4 4 1 1 1 2 2 5 6 7 8 6 9 8 8 11 9 10 12 8 14 9 11 10 11 6 5 6 4 4 5 5 5
3 3 3 3 3 3 3 3 3 3 2 2 2 2 1 1 1 1 3 1 1 5 4 4 4 1 0 0 0 7 5 5 6 4 7 9 11 8 12 10 9 7 6 9 9 7 6 5 4 4 4 4 4 4
3 3 2 2 2 2 2 2 3 3 3 2 2 2 2 1 1 1 3 2 3 4 8 5 1 2 -0 0 1 2 3 3 3 5 8 9 10 6 9 8 9 7 6 8 8 6 5 5 4 4 4 3 3 3
2 2 2 2 2 2 2 2 2 2 2 2 2 2 2 2 1 2 2 2 1 4 7 6 2 1 1 2 2 2 2 4 6 8 9 10 7 7 7 8 9 6 7 9 9 6 6 5 4 3 4 4 4 4
2 2 2 2 2 2 2 2 2 2 2 2 2 2 2 2 2 4 8 3 2 2 6 9 3 4 2 2 2 3 4 5 6 8 8 7 5 7 10 11 6 5 4 4 6 4 4 4 3 3 4 4 4 4
1 1 1 1 1 1 1 1 2 2 2 1 2 2 2 2 3 7 6 3 2 2 7 8 8 4 3 4 4 4 4 5 6 8 8 8 8 7 9 11 7 5 5 4 4 4 5 4 5 3 3 3 5 7
1 1 1 1 1 1 1 1 1 2 2 1 1 1 2 2 3 5 2 2 1 5 6 9 9 8 4 7 8 4 7 7 8 9 7 8 7 7 11 8 6 6 5 5 4 4 4 3 3 3 3 4 5 6
1 1 1 1 1 1 1 1 1 1 1 1 1 1 3 5 7 4 2 1 1 4 8 9 10 11 4 7 6 7 7 10 7 9 9 7 9 11 8 7 7 6 6 6 5 5 5 4 4 4 4 4 5 6
1 1 1 1 1 1 1 1 1 1 1 1 3 8 9 6 1 2 4 6 6 5 5 8 5 10 6 7 9 8 8 10 12 9 6 9 10 7 6 6 6 7 7 6 7 7 7 7 7 6 6 5 5 6
1 1 1 1 0 1 1 1 1 1 2 5 7 7 3 1 3 6 8 9 8 10 7 6 6 8 5 9 10 7 10 9 12 10 11 11 10 9 8 8 8 8 8 8 8 7 7 7 8 8 8 6 7 8
1 1 1 0 0 0 0 0 1 2 4 4 3 3 3 5 7 9 10 8 9 10 7 8 7 6 6 4 7 8 10 10 13 8 11 12 12 11 10 10 10 9 9 9 9 10 10 10 10 10 10 12 12 13
1 2 1 1 1 0 1 1 1 1 1 2 4 7 7 8 12 12 13 11 10 8 7 7 9 7 6 6 8 9 12 12 8 12 12 13 12 11 11 11 11 10 11 11 12 11 12 13 13 13 14 14 14 15
2 2 2 2 2 1 1 1 1 2 3 6 8 12 10 11 10 11 10 9 9 7 6 7 8 8 7 9 9 12 10 9 13 14 14 13 13 12 12 12 13 13 13 13 13 13 14 14 15 15 15 15 16 17
2 2 3 3 3 3 3 4 4 4 7 10 9 13 12 11 11 10 10 9 10 9 7 7 7 7 9 11 9 11 13 14 12 14 13 13 13 13 13 13 13 13 13 13 13 14 15 15 16 16 16 17 18 18
2 2 4 3 3 3 3 3 4 5 8 11 12 13 11 10 11 11 12 11 10 10 7 7 9 11 11 10 12 13 13 14 14 13 13 13 13 13 14 13 14 14 13 14 14 15 16 17 17 17 17 17 18 18
2 3 4 4 4 4 4 5 7 10 11 13 14 12 12 12 12 13 12 12 10 10 10 9 11 13 10 12 14 14 15 14 13 13 12 13 14 14 13 13 14 14 14 15 16 16 17 16 17 18 19 19 18 19
2 3 4 3 3 5 6 7 9 12 14 12 14 13 13 12 12 12 11 11 10 10 10 13 10 14 15 16 15 15 13 12 13 13 14 14 13 14 13 14 14 15 16 16 16 17 17 17 18 19 19 19 20 20
3 3 3 4 4 6 9 9 9 14 14 13 12 12 12 12 12 12 12 11 11 11 11 13 16 17 17 16 16 15 14 14 15 15 14 14 15 15 15 15 15 16 16 16 16 17 17 17 17 18 18 19 20 20
5 5 5 5 4 7 11 10 7 12 14 14 13 14 13 14 13 13 13 13 13 15 17 18 19 18 18 17 16 15 14 13 13 14 14 15 14 15 16 16 16 17 17 18 18 18 18 19 18 18 18 19 20 21
4 5 5 4 6 7 9 10 12 12 12 14 13 13 14 13 15 15 15 15 17 18 19 18 17 17 16 16 15 14 15 14 15 14 15 16 15 15 15 15 15 16 17 18 19 19 19 20 20 19 20 20 21 21
5 5 4 5 8 9 10 9 11 10 12 13 13 13 15 16 17 17 15 18 19 19 18 17 17 17 16 17 16 16 15 14 14 14 15 15 15 15 16 15 16 17 17 17 18 19 19 19 19 19 20 20 20 21
6 6 7 8 11 11 12 8 11 11 13 14 13 15 16 16 16 14 18 18 18 17 16 16 16 16 16 16 16 16 15 15 16 16 15 15 15 15 16 16 16 17 18 18 17 18 19 19 19 19 19 19 20 21
10 12 13 13 12 15 12 13 12 13 13 14 15 17 17 16 14 17 20 19 17 16 16 17 16 15 16 16 17 17 16 15 16 16 15 16 17 17 17 17 17 17 18 18 18 18 18 19 18 18 18 19 19 20
15 19 15 17 14 15 16 16 16 16 17 17 18 18 18 14 18 19 20 19 18 18 17 16 16 17 17 17 17 17 16 15 16 17 16 14 15 16 17 18 18 17 16 17 18 18 18 18 18 18 19 19 19 20
20 18 17 16 16 16 15 17 17 17 16 18 17 16 14 16 19 20 19 17 17 17 16 16 16 16 17 16 17 17 17 15 15 17 17 16 16 15 16 17 17 18 16 16 17 18 18 18 18 19 19 20 20 20
20 19 18 16 15 15 16 16 15 17 18 19 17 18 17 21 21 19 16 16 16 15 15 14 15 15 16 16 16 15 15 16 16 17 16 16 16 16 16 16 18 17 15 15 16 17 18 18 18 19 19 19 18 18
18 18 21 19 19 17 20 19 19 20 19 17 17 21 21 20 20 16 16 15 14 14 14 14 14 14 15 15 15 14 14 14 14 14 14 14 14 14 15 15 15 16 15 14 15 15 15 16 16 17 17 17 17 16
18 17 19 23 19 19 19 19 19 19 18 16 17 19 19 17 14 15 14 13 12 12 14 15 15 13 13 14 14 14 14 14 14 16 16 15 15 16 14 14 14 13 14 15 16 15 15 15 15 15 16 16 17 17
19 15 19 20 21 21 20 17 18 17 16 15 16 17 17 16 15 12 13 13 14 15 14 14 13 13 14 13 14 15 14 14 14 14 14 15 16 15 14 14 14 14 13 14 15 16 16 16 16 16 17 17 16 17
15 15 18 18 20 18 17 16 15 15 14 15 14 15 16 16 15 14 14 14 14 13 12 13 14 14 14 15 14 14 16 15 16 15 14 14 14 15 15 15 14 14 14 14 14 15 15 14 14 15 16 17 18 17
16 17 19 20 19 17 15 14 14 15 15 15 16 15 15 15 17 15 15 14 13 14 16 13 14 16 15 15 15 15 16 15 15 16 15 15 15 15 15 15 14 14 15 15 14 15 16 16 15 15 15 18 17 18
16 16 17 17 18 17 16 14 15 16 15 15 16 15 16 15 18 16 14 14 13 13 14 14 14 15 16 16 15 15 16 17 18 18 18 19 20 18 15 15 14 15 16 15 15 16 18 19 17 18 18 18 19 19

GFSWCAN_con_lsi_096.txt.gz
Lid_Strength_Index
4 4 3 2 3 3 3 3 2 1 1 1 0 0 0 1 1 1 2 -0 2 5 4 3 3 5 5 5 8 6 8 7 9 12 11 11 12 11 12 11 11 13 15 15 14 16 17 6 7 10 8 5 5 5
4 3 3 3 3 3 3 3 2 2 1 1 1 1 1 1 0 0 3 -0 -0 4 4 1 1 1 2 3 5 5 7 9 7 9 9 9 11 11 10 13 8 14 10 12 11 11 7 5 6 5 4 5 5 5
3 3 3 3 4 3 3 3 3 2 2 2 2 2 1 1 1 1 2 1 2 5 5 4 4 1 0 1 0 7 6 5 6 5 8 9 12 10 13 11 9 9 7 11 11 8 7 6 5 5 4 4 4 4
3 3 3 3 3 3 3 3 3 3 3 2 2 2 2 1 0 0 2 1 2 4 8 6 1 3 0 0 1 2 3 4 4 5 8 10 11 7 11 10 10 8 8 9 10 7 6 5 5 5 4 4 4 4
2 3 3 3 3 2 2 2 3 3 3 3 2 2 2 1 1 1 1 1 1 4 7 6 3 1 1 1 2 2 3 4 5 8 9 10 7 8 8 8 10 7 8 10 11 7 7 6 4 4 4 4 4 4
3 2 2 2 2 2 2 2 2 2 2 2 2 2 2 1 1 4 7 2 1 1 6 10 3 4 2 2 3 3 3 4 5 7 8 7 5 7 11 12 7 6 5 5 7 4 5 4 4 3 4 4 4 5
3 2 2 2 2 1 1 2 1 2 2 2 2 2 2 2 3 6 6 3 1 1 7 9 8 4 3 3 3 4 3 5 5 7 8 8 7 7 10 12 7 6 6 5 4 4 5 5 5 4 3 4 4 5
2 1 1 1 1 1 1 1 1 1 1 1 1 1 2 2 3 5 2 1 1 5 6 9 9 7 4 7 8 4 7 6 6 8 7 8 7 8 11 7 6 6 5 5 5 4 4 4 4 4 3 3 4 5
1 1 1 1 1 0 1 1 1 1 1 1 1 1 2 5 7 5 1 1 1 4 8 9 10 11 5 7 6 6 6 10 6 9 9 8 10 11 8 7 7 6 6 7 6 5 5 6 6 6 6 5 5 5
1 1 1 1 1 1 1 1 1 1 1 1 3 7 9 6 1 1 4 6 6 5 5 9 6 10 7 8 9 9 8 10 12 10 7 10 10 7 7 7 8 7 7 7 9 9 8 8 8 8 7 7 6 6
1 1 1 1 1 1 1 1 1 1 1 4 7 7 3 2 4 7 9 9 8 10 7 7 7 9 5 10 10 8 10 10 13 11 11 11 11 11 9 9 9 9 9 9 9 9 9 10 10 10 10 10 10 10
1 1 0 0 1 1 1 1 1 3 3 3 3 2 3 5 7 9 10 9 9 10 7 8 7 6 6 5 9 8 10 10 13 8 11 13 13 12 11 11 11 11 11 11 11 11 12 12 12 12 13 13 14 14
2 1 0 0 0 0 1 2 1 1 1 2 4 6 7 8 11 12 13 11 10 8 7 7 9 7 6 6 8 9 12 12 8 12 13 14 13 12 13 12 13 12 13 13 13 13 13 14 14 14 14 14 15 16
3 1 1 1 1 1 1 1 1 1 2 6 8 11 10 11 10 11 10 9 8 7 7 7 8 8 7 9 9 12 10 9 13 14 16 15 14 13 13 13 13 14 14 14 14 15 15 15 16 16 16 16 16 17
3 3 2 1 2 3 3 3 3 4 6 9 8 13 12 11 10 10 9 9 9 8 7 7 7 7 9 10 9 11 13 14 14 16 14 14 13 14 14 14 14 14 14 14 14 15 16 16 17 17 17 17 17 18
2 3 4 3 2 2 3 3 4 5 8 11 11 12 10 11 11 10 10 10 10 9 8 7 9 11 11 10 12 13 13 16 15 14 13 13 14 13 13 13 14 14 14 14 14 15 16 16 17 17 17 18 18 18
1 5 4 3 3 3 3 5 7 9 10 12 13 11 10 11 12 11 10 11 9 10 10 9 12 12 9 12 14 14 16 15 13 13 13 13 14 14 13 13 14 14 14 15 15 16 16 16 17 18 20 19 19 19
5 4 3 3 3 4 5 6 9 10 13 12 13 13 12 11 12 11 10 10 9 9 9 12 10 13 15 15 16 15 13 12 12 13 13 13 13 14 13 14 14 14 15 15 16 16 16 18 19 20 20 20 20 20
4 4 4 3 3 5 8 8 8 13 12 11 11 11 11 12 11 11 11 10 11 10 11 12 15 17 17 16 16 15 14 13 13 13 14 14 14 14 15 15 15 16 16 16 17 17 17 17 18 18 18 19 20 21
4 4 3 3 3 7 10 10 7 11 13 12 11 13 12 13 11 12 13 13 12 14 17 18 18 18 17 16 15 15 14 13 13 13 14 14 14 14 15 15 16 16 17 17 18 18 18 19 18 18 19 19 21 21
4 5 4 3 6 7 8 10 11 11 11 13 12 12 13 13 14 15 15 14 16 17 18 17 16 16 15 15 15 14 14 14 15 15 15 16 14 14 14 14 15 16 17 18 19 19 19 20 20 19 20 20 20 21
5 5 4 5 8 8 10 8 10 9 11 12 13 13 14 16 16 16 15 18 19 18 17 17 17 15 16 16 16 15 15 14 14 14 14 14 15 15 15 15 16 17 17 17 18 19 19 19 19 20 21 21 20 21
6 5 7 7 10 11 12 8 12 11 14 14 13 15 15 16 15 14 18 18 18 16 16 16 16 15 15 15 16 15 15 15 15 15 15 15 15 15 16 16 16 17 18 18 17 18 19 18 19 19 19 20 21 21
8 11 12 12 11 14 11 13 11 12 12 13 15 17 16 15 14 17 20 19 17 16 16 16 15 15 16 16 17 18 16 15 15 15 15 16 17 17 16 17 17 17 17 17 17 18 18 18 18 19 19 19 19 20
14 17 14 15 12 13 15 15 15 15 16 16 17 17 16 13 17 19 20 18 17 17 16 15 16 16 17 17 17 17 16 15 17 17 17 14 15 15 16 16 16 15 15 16 17 18 18 18 18 18 19 19 19 20
19 18 16 15 15 15 14 16 16 16 16 16 16 15 13 15 18 20 18 17 17 16 16 15 15 16 16 16 17 17 16 14 14 17 16 16 16 14 15 16 17 17 15 15 16 17 18 18 18 19 20 19 19 19
19 18 16 13 13 14 15 14 14 15 17 17 16 16 16 19 20 18 16 15 15 15 14 13 14 15 15 15 15 14 14 15 15 16 15 15 15 15 15 16 17 15 14 14 15 16 17 18 18 19 19 18 18 18
17 16 20 17 17 15 18 17 18 18 18 16 16 19 20 19 19 16 15 14 13 13 13 13 13 14 15 15 14 14 14 13 14 14 14 15 14 14 14 14 14 14 14 14 14 14 15 16 17 17 17 18 18 17
17 16 18 21 18 18 18 18 18 18 17 15 16 18 19 16 14 14 13 13 11 12 14 14 14 13 13 13 14 14 13 14 14 15 15 16 16 16 13 13 13 13 13 14 14 13 14 14 15 15 16 17 16 16
17 14 18 19 20 21 19 16 17 15 15 15 16 16 17 16 13 12 12 13 14 15 14 14 14 13 14 13 14 15 15 14 14 15 15 16 16 14 14 14 14 13 13 14 15 15 15 15 15 16 16 16 16 17
14 14 17 18 20 18 17 14 13 13 13 14 13 16 17 17 15 14 14 13 13 13 13 14 15 14 15 16 15 15 17 15 15 15 14 14 14 14 15 14 14 13 13 14 14 14 15 15 15 15 16 16 18 17
14 16 18 20 19 16 14 13 14 14 14 15 16 15 15 15 17 15 15 14 13 15 16 14 15 16 15 14 15 15 16 16 16 17 17 16 15 15 14 14 14 14 14 15 15 15 15 15 15 15 15 16 16 17
15 15 16 17 18 17 15 14 15 15 14 15 16 15 15 15 18 16 14 13 14 14 14 14 14 15 16 15 15 15 16 17 18 17 18 18 20 19 16 15 14 15 15 15 15 15 16 16 16 17 17 18 18 18

GFSWCAN_con_lsi_099.txt.gz
Lid_Strength_Index
2 3 3 3 3 3 3 3 3 3 3 2 1 1 1 0 0 1 3 2 4 7 6 5 5 7 6 7 9 8 9 8 9 12 13 13 14 12 13 13 13 13 15 16 15 17 18 6 8 11 9 7 7 7
2 3 3 3 3 3 3 3 3 3 2 2 1 1 1 1 1 1 5 2 2 5 6 3 3 2 3 4 6 6 8 8 8 11 11 11 13 12 12 16 10 14 11 14 12 13 8 6 7 6 6 7 7 7
3 3 3 3 3 3 3 3 4 3 3 2 1 1 2 1 1 1 3 2 3 6 6 6 6 3 2 2 3 7 7 6 8 8 8 10 13 10 14 13 12 10 8 11 11 9 8 7 6 5 5 5 5 5
3 4 4 3 3 3 3 3 3 3 3 2 2 2 2 2 1 1 3 1 3 5 11 8 2 4 2 2 3 3 4 4 5 6 8 10 12 8 12 11 11 10 9 10 11 9 8 7 6 5 5 5 5 5
4 4 3 3 3 2 3 3 3 3 3 3 2 2 2 2 1 1 1 1 1 5 9 8 4 2 2 2 4 4 4 5 6 8 9 10 8 9 9 9 11 8 10 12 12 8 8 8 6 5 5 5 5 6
4 3 3 2 2 3 3 3 2 2 2 2 2 2 2 2 1 3 7 2 1 2 6 10 5 5 3 3 4 5 5 6 7 8 8 9 6 9 12 13 8 7 6 6 8 6 6 5 5 5 6 6 6 7
3 2 2 2 2 2 2 2 2 2 2 2 2 2 2 2 2 6 6 3 1 1 7 9 10 5 4 4 5 5 5 7 7 7 9 9 9 8 11 13 7 6 6 5 5 5 7 6 7 5 5 5 6 7
2 2 2 2 2 2 2 1 1 1 1 1 1 1 2 2 3 5 2 0 1 5 6 10 11 9 4 8 9 6 7 6 6 7 7 9 8 9 12 8 7 6 6 7 6 6 6 6 6 6 6 6 6 8
3 3 2 2 2 1 1 1 1 1 1 1 1 1 2 6 7 5 1 1 1 4 9 9 12 12 6 8 6 6 6 10 6 9 9 9 10 13 9 8 8 8 8 8 7 8 8 8 8 8 8 8 9 8
2 2 1 1 1 1 1 1 1 1 1 1 3 7 10 7 1 2 3 6 6 6 6 9 7 11 7 8 9 9 8 10 12 9 7 10 11 8 9 9 9 9 9 9 11 11 11 11 11 11 10 10 11 10
1 1 1 1 1 1 1 1 0 0 1 5 8 8 4 1 4 7 9 9 9 10 8 8 8 9 6 10 10 8 10 10 13 11 11 12 12 11 11 11 10 11 11 11 11 11 12 12 13 12 12 12 13 13
2 1 1 1 1 1 1 0 0 3 4 4 4 3 3 6 8 10 11 9 10 12 10 11 10 8 7 6 9 9 11 10 14 9 12 14 14 13 12 13 12 12 12 13 12 13 14 14 15 14 14 15 15 16
1 0 0 1 1 0 1 1 2 1 1 3 4 6 7 9 11 12 14 14 14 11 9 10 9 8 8 7 10 10 12 13 9 12 15 16 14 13 14 14 14 13 14 14 14 15 15 16 16 16 17 16 16 17
1 0 0 1 1 1 1 1 1 1 3 6 9 11 11 13 11 12 11 10 9 9 10 10 11 9 9 10 10 12 11 10 14 16 18 16 15 14 14 14 15 15 14 15 16 16 17 17 18 18 18 18 18 18
2 1 1 1 1 2 1 2 3 4 7 10 10 14 13 11 11 11 9 9 10 8 9 10 9 9 10 11 10 11 13 14 17 19 16 15 14 14 14 15 17 16 15 15 18 20 21 20 20 21 20 19 19 20
3 3 3 2 2 2 2 3 5 6 9 11 12 12 11 12 12 12 11 11 10 10 9 8 10 11 11 13 12 16 14 18 18 16 15 15 15 15 15 17 17 19 19 19 18 20 20 20 20 20 19 19 20 19
3 5 3 3 3 3 3 5 7 10 11 12 15 12 12 13 13 13 11 11 10 10 10 9 12 13 9 14 16 15 20 16 15 15 15 17 18 19 16 17 16 17 19 19 21 20 19 20 20 20 21 20 20 20
5 4 3 2 3 4 5 6 10 12 14 13 15 15 16 15 15 13 11 11 11 11 11 13 11 16 20 18 19 16 14 14 15 17 19 18 18 19 16 16 16 17 20 20 19 20 19 20 20 21 21 21 21 22
4 4 3 3 3 6 9 9 10 14 13 13 12 12 13 13 13 13 13 11 11 12 12 14 18 19 20 18 18 17 16 15 15 15 20 21 20 18 17 18 18 18 18 18 18 19 19 19 19 19 20 21 23 23
3 3 3 3 3 8 10 10 8 12 15 14 13 14 14 13 13 14 15 14 14 15 18 20 20 19 18 17 16 15 15 14 15 15 17 19 16 19 19 19 20 20 18 18 18 18 19 20 19 20 20 21 22 23
4 4 3 4 7 7 10 11 12 12 12 13 12 13 15 14 16 17 17 15 18 19 20 18 18 17 16 16 15 15 15 14 16 16 16 18 18 17 15 15 17 17 18 19 20 20 20 21 21 20 21 22 22 22
6 4 6 6 9 9 11 10 12 11 13 14 13 13 16 19 19 18 16 19 20 19 17 18 17 16 17 17 16 16 15 15 15 16 16 16 17 18 17 18 18 18 19 19 19 20 20 20 20 21 22 22 21 21
6 6 9 9 13 14 13 8 12 11 15 15 14 16 17 17 16 15 20 18 18 16 16 16 16 15 16 16 16 17 15 16 16 16 17 17 17 17 18 17 18 19 20 19 18 19 19 19 19 20 21 21 21 22
9 13 15 16 14 16 14 15 12 14 15 15 17 20 19 17 15 19 21 20 18 16 16 17 15 16 17 17 18 19 18 16 17 18 17 17 18 18 17 18 18 18 18 18 18 18 19 19 19 20 20 21 21 22
18 20 18 20 15 18 19 19 18 17 19 19 20 20 18 15 20 21 21 19 20 19 18 16 18 18 19 19 19 19 18 17 18 19 18 17 17 18 18 18 18 16 16 18 18 19 19 19 19 20 20 21 21 21
24 21 20 18 19 18 17 21 21 20 20 21 21 18 16 22 24 24 20 20 22 20 21 18 17 19 19 19 20 19 18 16 16 18 18 17 17 16 17 18 19 18 15 16 18 19 19 19 20 20 21 21 21 21
24 23 17 14 14 15 19 19 17 20 22 23 21 20 22 27 26 20 18 17 18 18 17 17 16 17 17 17 16 16 17 17 18 17 16 16 16 16 17 19 19 17 15 15 16 17 18 19 20 20 21 21 21 21
19 18 25 21 20 17 24 23 24 25 23 18 20 26 26 24 23 19 19 17 17 17 17 17 17 17 18 18 18 17 18 15 17 17 16 16 16 15 15 16 16 14 16 15 16 17 17 18 19 20 20 21 22 21
21 19 21 26 23 22 21 24 24 21 19 18 24 25 23 18 19 18 18 16 13 14 16 17 15 15 18 19 20 18 18 18 19 19 19 21 22 17 16 16 15 14 17 17 14 14 15 16 16 18 20 20 20 20
21 17 23 25 26 24 20 21 22 22 19 19 18 18 18 18 16 14 15 16 19 21 22 22 21 21 19 19 23 23 21 22 19 19 23 23 21 21 20 17 16 17 18 19 19 19 16 19 18 21 21 22 23 24
16 18 22 22 23 19 18 17 16 16 17 19 20 21 22 21 21 20 18 16 16 14 19 23 23 23 23 24 22 23 24 22 22 21 19 21 23 23 23 22 21 18 18 17 18 22 21 19 20 23 21 24 24 25
19 22 24 25 21 17 16 19 20 21 21 23 24 22 21 21 23 21 21 18 17 21 19 22 24 23 23 23 24 23 23 25 24 25 26 26 26 24 19 18 20 23 23 23 23 24 25 23 22 20 22 23 25 27
19 20 21 22 23 23 20 21 20 21 21 22 22 21 22 22 24 22 20 17 17 21 21 23 24 24 23 23 23 24 24 26 25 20 22 23 25 25 26 26 24 22 22 22 23 23 24 24 25 27 28 28 29 29

GFSWCAN_con_lsi_105.txt.gz
Lid_Strength_Index
1 1 1 1 2 2 2 2 3 2 3 2 2 2 2 2 2 4 6 4 5 8 8 7 6 8 9 9 12 9 10 10 10 12 13 13 14 12 13 12 13 14 16 18 15 17 18 8 8 12 10 7 7 8
1 1 1 1 2 2 2 2 2 2 3 3 2 2 2 3 2 2 6 4 3 6 8 5 5 4 5 6 8 8 9 10 8 11 10 11 13 12 13 16 10 15 12 13 13 13 8 8 8 7 6 8 8 8
1 1 1 1 2 2 2 2 2 3 3 3 2 2 3 2 1 3 5 4 4 6 7 7 7 4 3 4 4 8 9 6 7 6 9 10 13 11 14 14 12 10 9 12 11 10 10 8 6 6 6 7 6 6
1 1 1 1 1 2 2 2 3 3 3 3 2 2 3 2 2 2 5 5 5 6 10 10 5 6 3 4 4 4 6 5 6 7 9 10 12 8 12 11 12 10 10 11 11 9 8 7 7 6 6 6 7 8
1 1 2 1 1 2 2 2 2 3 3 3 3 3 2 2 2 3 5 4 3 6 10 9 5 4 3 5 5 5 6 7 7 8 9 11 10 9 9 9 11 8 10 12 12 8 8 8 7 5 6 7 8 9
2 1 2 1 2 2 2 2 2 2 3 3 3 3 2 2 2 5 8 4 3 2 6 11 6 5 4 4 5 6 5 6 6 8 9 8 6 8 11 13 8 7 6 8 10 7 7 7 7 6 8 8 9 9
2 2 2 1 2 2 2 2 2 2 3 2 3 3 2 2 3 7 7 4 1 2 7 9 11 7 5 5 6 7 6 7 8 8 10 9 9 8 11 13 9 7 6 7 7 8 10 10 11 9 9 9 10 11
2 2 2 1 2 2 3 2 2 3 2 2 2 2 2 2 3 5 3 0 1 5 6 9 11 10 6 9 8 7 8 8 8 9 7 9 9 10 12 9 10 10 8 9 9 9 9 10 10 10 10 10 11 13
2 2 2 2 2 2 2 2 2 2 2 2 2 2 3 5 7 5 1 1 1 4 8 8 14 14 6 7 6 6 8 10 8 9 9 9 11 12 10 10 11 11 12 11 9 11 11 12 12 11 11 12 12 13
3 2 2 3 3 2 3 2 1 2 2 1 2 7 9 7 2 1 3 7 7 7 6 10 11 12 8 7 8 8 8 10 12 9 8 10 10 10 11 11 11 12 12 12 13 14 14 14 14 13 12 12 12 12
3 3 3 3 3 2 1 2 2 2 2 4 8 8 5 2 4 6 9 10 9 10 8 8 10 10 6 10 10 8 10 10 13 12 11 12 12 12 11 12 12 12 12 13 13 13 14 15 15 14 14 14 14 14
3 3 2 2 2 2 2 2 2 3 5 4 4 3 3 5 8 10 11 10 10 12 11 10 9 9 7 6 9 9 11 10 14 9 11 14 15 13 13 13 13 13 13 14 14 15 14 15 16 16 16 16 16 15
3 3 2 2 2 2 2 2 1 1 1 3 5 7 9 9 12 15 16 13 12 12 12 11 9 10 8 7 9 10 12 13 9 13 17 17 15 14 14 15 15 14 14 15 16 16 16 17 17 18 19 18 18 18
3 2 2 2 2 1 0 1 1 1 3 7 9 11 12 14 13 14 12 12 11 9 9 13 9 9 9 10 10 14 11 10 14 16 20 17 15 14 15 15 16 17 16 17 18 18 19 19 20 20 21 20 21 20
1 1 1 1 0 0 1 1 1 5 7 10 11 14 16 14 11 10 9 9 10 9 9 9 10 10 12 12 11 12 13 18 19 20 19 16 15 15 16 16 17 17 19 21 22 22 23 22 22 23 22 22 21 22
1 1 1 1 1 1 1 2 4 6 9 12 14 14 12 13 14 12 12 12 10 10 9 8 10 12 14 11 14 18 17 20 19 18 16 16 17 16 17 17 19 21 21 22 22 22 23 24 24 24 23 23 23 24
1 2 1 1 2 3 3 6 7 9 11 13 16 14 15 14 16 14 13 12 10 11 10 11 12 14 12 16 18 17 23 20 18 17 17 17 18 20 21 19 19 20 22 23 23 23 23 23 23 23 25 24 23 23
4 3 2 3 3 4 6 7 10 11 14 14 17 17 16 16 17 16 14 13 12 11 11 15 14 19 23 21 23 22 19 17 17 19 20 20 20 20 18 19 19 19 22 22 22 23 24 23 23 23 24 24 23 23
3 3 2 2 4 7 9 10 10 14 15 15 14 15 16 17 16 16 16 15 14 14 14 17 22 24 24 21 22 21 20 18 19 20 19 20 18 18 20 21 19 19 19 20 19 21 23 23 23 23 23 23 24 25
2 3 3 3 4 9 11 12 10 13 17 16 15 18 18 19 18 20 17 16 15 16 19 21 23 22 21 20 18 19 18 16 16 17 18 18 20 20 21 21 22 23 21 21 21 21 21 21 21 22 24 25 26 24
4 4 4 5 7 9 11 12 13 14 14 16 15 15 20 17 19 20 20 16 19 21 21 21 21 19 17 17 16 15 15 15 17 17 18 19 18 17 19 20 19 21 22 24 24 25 23 22 22 22 24 23 22 22
6 4 8 7 9 10 12 12 13 13 14 15 14 15 21 22 23 21 17 20 21 20 20 20 20 19 18 19 18 17 16 16 16 17 17 17 19 19 19 19 19 21 21 21 20 22 21 20 20 21 22 22 21 21
6 7 10 10 13 14 15 9 14 14 18 16 15 18 20 19 18 16 22 19 19 17 16 17 17 17 18 18 17 18 17 17 18 18 18 18 18 18 18 18 19 20 20 19 19 20 20 20 20 21 21 21 21 22
10 14 16 17 16 18 15 17 13 15 16 17 18 20 20 20 18 21 23 22 19 17 17 17 17 19 19 19 20 20 19 18 20 20 19 20 20 19 18 18 17 17 18 18 18 19 20 22 21 21 22 23 23 24
16 19 19 23 20 21 24 25 23 20 25 22 23 22 20 18 24 26 26 23 22 24 24 21 20 21 23 25 23 21 21 19 22 21 19 19 20 19 18 17 17 16 16 18 20 20 20 20 20 20 21 23 22 23
25 24 23 23 24 22 23 26 26 26 25 26 24 21 23 27 30 29 23 26 25 24 28 26 24 23 22 22 23 22 21 21 20 21 19 18 18 21 22 21 19 19 17 18 19 20 20 20 19 19 20 19 20 22
27 26 19 16 17 18 24 23 21 24 28 26 25 29 29 33 33 25 20 22 22 23 22 22 20 20 21 21 19 19 20 19 20 19 17 17 17 17 20 21 21 18 16 17 18 19 20 21 20 20 20 20 20 20
23 22 25 26 24 22 29 30 31 30 28 22 25 31 32 30 26 23 22 23 22 20 19 19 20 20 21 22 23 24 22 23 21 19 19 18 18 18 18 17 17 14 16 16 18 18 18 18 19 20 21 22 23 23
26 24 24 30 28 26 27 29 29 23 21 25 30 30 25 21 23 23 22 21 20 19 22 23 27 28 25 25 26 25 25 22 23 26 28 29 28 23 20 19 21 21 22 19 15 16 18 19 20 21 22 22 24 24
25 24 28 32 29 28 28 27 28 28 23 23 21 19 21 22 20 21 20 20 23 27 30 29 29 29 32 31 31 27 26 27 26 24 27 29 27 25 28 26 24 24 26 23 23 19 16 18 18 21 22 23 23 24
22 27 28 27 27 26 26 29 27 27 30 29 31 28 26 23 22 21 23 27 26 30 27 31 32 34 31 32 33 32 29 28 29 27 28 29 30 31 30 29 30 30 29 28 27 27 26 27 29 29 27 27 29 29
28 31 28 28 26 27 28 31 31 30 34 30 30 34 30 29 30 25 24 25 30 29 32 32 28 30 33 34 35 34 30 32 32 32 31 32 33 34 33 32 33 31 29 30 31 31 29 28 29 26 29 30 31 31
29 29 29 25 25 27 26 27 28 27 31 30 28 29 29 30 29 26 24 25 24 26 28 30 32 32 32 31 30 32 32 33 32 25 26 27 29 29 34 35 34 31 28 31 33 32 30 29 30 30 31 32 33 34

GFSWCAN_con_lsi_108.txt.gz
Lid_Strength_Index
1 0 1 1 1 1 1 1 2 2 2 2 2 2 2 2 2 5 7 5 6 9 9 7 7 9 9 10 12 10 11 10 10 14 13 13 14 13 14 12 14 14 15 17 16 18 18 9 8 13 10 8 7 7
1 -0 0 1 1 1 1 1 2 2 2 2 2 2 2 2 2 3 9 5 4 6 9 6 6 5 6 6 9 8 10 11 9 12 11 11 13 12 12 16 10 15 12 14 13 14 9 8 9 7 6 8 8 8
1 -0 -0 0 0 0 1 1 2 2 2 2 3 2 2 2 2 3 5 4 5 6 7 7 8 5 4 4 4 8 9 7 8 6 12 11 13 12 14 13 12 10 9 12 12 10 10 8 7 6 6 7 6 6
1 0 0 0 0 0 0 1 2 2 2 2 3 2 2 2 2 3 5 4 5 7 10 10 6 7 4 4 4 4 6 6 5 6 9 11 12 9 12 11 12 10 9 11 11 9 9 8 7 6 6 7 8 8
1 0 0 0 0 0 1 1 2 2 2 3 3 2 2 2 2 4 5 5 4 7 11 10 6 5 4 4 5 5 6 7 9 10 9 10 9 10 9 9 11 8 10 12 13 8 9 8 7 6 8 8 9 10
-0 0 0 0 0 0 0 1 1 2 2 3 2 2 2 2 2 5 8 5 4 4 7 12 7 6 5 5 6 7 7 8 8 10 10 8 6 8 12 12 9 8 9 8 10 8 9 9 9 8 9 9 10 11
0 0 1 1 1 0 0 1 2 2 2 2 2 2 2 2 4 7 8 5 2 3 7 11 10 7 6 6 7 7 7 6 7 10 10 10 9 9 12 12 10 8 8 8 9 9 11 11 12 10 9 10 11 12
0 1 1 1 1 1 1 1 2 2 2 2 2 2 2 2 3 5 4 2 1 5 6 12 11 10 6 10 10 7 8 7 6 9 8 9 9 10 12 10 10 10 9 10 9 10 11 11 11 11 11 10 12 13
0 1 1 1 1 1 1 1 2 2 2 2 2 2 3 5 7 5 1 1 2 5 9 9 13 15 5 7 6 6 7 10 8 9 10 9 11 12 11 11 12 12 13 13 10 12 13 14 14 13 12 13 12 13
1 1 2 1 1 1 1 1 2 2 2 2 3 7 9 7 2 2 4 7 7 7 6 10 11 13 8 8 9 8 7 12 12 10 8 10 11 11 11 11 12 12 12 13 13 14 15 16 16 15 14 14 13 13
2 2 2 1 1 2 2 2 2 2 2 5 8 8 5 2 4 6 9 10 9 11 8 9 10 12 7 10 10 8 10 10 13 12 11 12 13 13 12 12 12 12 13 14 14 14 14 15 16 16 16 15 15 15
2 3 2 2 3 3 2 2 2 3 6 5 4 3 3 5 7 10 11 10 11 12 11 10 10 9 8 5 9 9 11 11 14 10 11 15 16 13 13 14 14 13 14 15 15 16 16 16 17 16 17 17 17 16
2 2 2 3 3 3 2 2 2 2 3 3 4 7 8 9 11 15 16 13 12 12 12 10 9 10 8 7 9 9 12 13 9 13 17 17 14 14 14 14 15 14 15 16 16 17 17 18 18 19 20 19 18 19
3 3 3 2 2 2 1 2 2 2 3 7 9 12 12 13 13 14 12 12 11 8 8 10 8 9 8 9 9 12 11 11 14 19 19 17 15 15 15 15 16 17 17 18 20 19 20 20 21 21 22 21 21 21
3 3 2 2 2 2 2 2 2 3 6 9 11 15 12 14 14 13 9 10 10 9 8 9 9 9 10 11 11 12 13 19 19 20 19 16 14 15 16 16 18 19 22 22 23 24 25 24 24 24 23 23 22 23
2 2 3 2 2 2 1 2 4 6 9 11 14 13 12 15 16 14 12 12 10 11 10 8 10 11 13 12 13 17 17 20 20 18 16 16 16 16 17 17 20 21 21 23 23 22 23 25 25 25 24 24 24 24
2 2 1 1 1 2 3 6 7 9 11 13 18 15 18 18 19 16 14 14 11 12 10 11 13 15 14 17 18 18 22 19 18 17 17 18 17 17 17 17 19 19 21 22 24 23 25 24 23 23 25 25 24 24
2 1 1 1 3 5 6 7 9 11 15 15 18 18 19 19 18 17 16 15 13 11 12 15 14 18 24 20 22 20 18 17 18 19 18 20 21 22 18 19 19 19 20 22 23 24 25 24 24 25 25 25 25 26
3 3 2 2 4 7 9 10 10 15 15 15 15 15 17 17 15 16 16 15 13 13 14 16 21 24 24 20 22 21 20 18 19 19 19 22 21 21 21 20 18 19 20 21 21 23 24 24 23 23 24 24 25 26
2 3 3 3 4 8 11 12 10 14 18 16 16 18 17 19 18 20 17 16 15 17 20 22 23 22 22 19 19 18 17 15 16 18 19 20 21 22 24 22 23 23 22 21 22 21 22 23 22 23 24 26 26 25
4 4 3 5 8 9 12 13 14 14 14 17 16 16 20 18 20 20 19 16 19 21 21 22 21 19 18 17 17 15 16 16 17 16 17 20 19 19 21 21 21 22 23 24 24 25 25 25 24 23 26 27 24 23
6 4 8 7 9 10 12 12 13 13 15 16 16 16 23 24 24 22 17 20 21 21 20 20 19 18 18 19 19 18 17 17 17 17 17 17 19 19 20 21 20 22 22 22 21 22 21 20 21 22 24 24 23 23
6 7 10 10 14 16 16 10 15 14 19 17 16 20 22 23 20 16 22 19 21 18 18 18 18 18 18 18 17 18 18 17 19 19 18 19 18 18 18 18 19 21 21 20 19 20 20 20 20 22 21 21 22 23
9 14 16 17 16 18 15 17 13 15 17 19 20 21 21 20 18 21 23 22 20 17 18 17 17 19 19 20 21 21 21 20 21 21 20 19 19 19 18 17 17 17 17 17 18 19 20 23 21 21 23 23 24 25
15 18 18 23 20 22 25 26 24 21 25 23 22 22 22 20 26 27 28 25 23 24 23 21 20 21 23 24 22 22 21 20 22 22 20 19 20 19 18 17 18 17 16 19 21 21 21 21 20 22 21 24 22 24
23 24 24 24 24 22 23 26 27 26 26 26 24 23 25 28 31 31 24 27 28 27 30 27 25 23 23 23 24 23 23 22 20 22 20 18 19 24 24 23 22 20 17 19 18 20 20 21 20 20 21 20 21 23
27 26 20 18 18 20 25 24 21 24 28 27 27 31 30 34 34 27 21 23 23 25 23 23 21 21 22 22 20 20 21 21 21 20 18 18 18 17 20 23 22 19 16 17 19 20 19 20 19 19 20 20 21 21
23 22 25 27 25 23 29 30 30 30 28 23 26 32 32 30 28 24 23 24 22 19 20 21 21 21 22 23 24 21 21 23 22 21 20 19 20 20 21 21 21 17 19 17 19 20 20 20 19 20 20 21 22 22
27 25 24 30 28 27 28 30 29 23 22 27 31 32 27 23 25 24 23 22 21 21 24 25 29 30 27 27 28 27 25 24 24 26 28 29 29 25 24 24 25 25 26 23 17 19 21 22 22 23 24 24 24 24
26 24 28 32 31 29 30 27 28 28 24 25 22 21 22 24 23 24 22 23 23 27 31 31 32 33 32 32 32 29 29 30 27 23 27 29 28 28 30 31 29 28 30 28 26 20 16 19 20 24 25 26 27 27
24 27 29 28 29 27 28 31 31 31 32 31 32 30 27 26 23 22 23 26 28 29 28 32 33 35 33 34 34 34 31 30 33 31 31 31 32 32 33 34 34 35 33 31 30 30 28 30 31 30 29 29 30 30
29 30 28 28 28 28 29 33 34 33 35 31 32 35 32 30 30 26 26 29 31 30 33 35 32 30 34 37 39 38 33 34 33 33 32 33 34 35 35 34 36 33 31 32 33 33 31 26 29 30 32 33 33 33
30 31 30 27 28 27 27 27 28 29 31 32 32 33 33 30 29 26 26 28 27 26 29 32 34 34 34 33 33 35 35 35 34 26 28 27 30 30 35 36 35 32 31 32 34 33 32 32 32 32 33 34 35 35

GFSWCAN_con_lsi_111.txt.gz
Lid_Strength_Index
2 1 1 0 0 1 0 1 1 1 1 1 2 2 2 2 2 4 5 5 6 9 9 8 7 9 8 8 10 9 9 8 8 11 12 12 13 12 13 11 12 14 15 15 14 16 17 8 8 12 9 7 7 7
1 1 1 1 0 0 0 0 1 1 1 1 2 2 2 2 2 4 7 5 3 7 9 6 5 5 5 5 7 7 9 8 7 10 9 10 12 11 12 15 9 14 12 13 12 12 8 7 8 6 6 7 7 7
2 1 1 1 -0 0 0 0 1 1 1 1 2 2 2 2 2 3 6 5 5 7 8 8 8 5 4 4 4 8 6 6 7 5 8 10 13 10 13 13 12 10 8 12 12 9 9 7 6 6 6 7 6 5
2 2 1 2 -1 -1 0 0 1 1 1 1 2 2 2 2 2 3 5 4 5 7 10 10 5 6 4 4 4 3 5 4 4 5 8 10 11 8 11 11 12 10 9 11 11 9 8 8 6 6 7 8 8 9
1 1 1 1 -0 -0 -0 -0 0 0 1 2 2 2 2 2 2 3 5 5 4 7 11 10 7 5 4 4 4 4 5 6 7 9 9 11 8 9 8 9 11 8 11 13 12 9 8 10 8 7 8 9 9 10
1 1 1 1 -0 -0 -0 -0 -0 0 1 1 2 2 2 2 2 4 8 4 4 5 9 12 7 6 4 4 5 6 6 6 7 8 9 7 6 8 11 12 8 8 9 9 11 9 10 9 9 9 10 11 11 12
0 1 1 1 0 -0 -0 -0 -1 0 1 1 2 2 2 2 3 7 9 5 3 4 8 10 9 6 5 5 6 6 6 6 7 8 8 8 8 7 10 12 10 9 8 9 9 10 11 11 12 11 10 11 11 12
0 0 0 -0 -0 0 0 -0 -0 0 1 1 1 1 1 1 3 6 4 3 3 5 6 10 10 8 5 8 8 6 7 6 6 7 7 8 8 8 11 10 10 11 10 11 10 10 11 11 11 11 11 10 12 13
-0 0 -1 -1 -0 -0 0 -0 0 1 1 1 2 1 3 4 7 5 2 2 3 6 9 9 11 12 5 6 6 7 6 9 6 9 9 8 9 12 10 11 12 12 13 13 12 13 13 14 14 13 13 13 13 13
-1 -0 -0 -0 -0 0 -0 0 1 1 1 1 3 7 9 6 2 1 5 7 8 7 7 9 8 11 7 7 8 8 7 9 11 9 7 10 10 11 11 11 12 12 13 13 14 15 15 16 16 15 15 15 14 14
-1 -0 -0 -0 0 -0 0 1 0 1 2 5 8 8 4 2 4 7 9 9 9 10 8 7 9 10 7 9 9 7 10 10 13 11 10 11 13 13 12 13 12 12 13 14 14 15 15 16 16 16 16 16 16 15
-0 0 0 0 0 1 1 1 1 3 5 5 5 3 4 5 7 10 11 9 10 11 9 9 9 8 8 5 8 8 10 10 14 9 11 14 15 13 13 13 13 13 14 15 15 16 16 17 17 17 17 17 17 16
0 1 1 0 1 1 1 1 1 2 3 3 5 7 7 9 12 15 14 12 12 10 10 9 10 9 8 6 8 9 12 13 8 12 15 16 14 14 14 14 14 14 15 16 17 17 17 18 19 19 19 19 18 19
1 1 1 1 2 1 1 2 2 2 4 7 8 12 12 14 12 12 11 10 9 8 9 8 8 9 8 9 9 12 10 10 13 17 18 16 14 14 14 14 15 17 17 18 19 19 20 20 21 21 21 20 21 21
2 1 2 2 2 2 2 1 1 3 6 8 9 14 13 12 11 10 8 9 9 8 8 8 8 8 9 10 9 11 12 17 17 18 17 15 14 15 15 15 16 17 18 20 21 22 23 22 22 23 22 22 22 22
3 3 4 2 2 2 1 2 5 6 8 11 13 13 11 12 13 13 12 11 10 11 9 8 9 11 11 11 13 16 16 18 18 16 15 15 15 15 16 16 18 19 19 20 21 20 22 23 23 23 23 23 23 23
3 4 2 2 2 1 2 6 6 9 11 13 17 15 16 16 16 15 14 14 12 12 10 10 11 13 12 15 17 17 19 17 16 16 16 16 16 17 17 16 17 18 20 21 21 21 22 22 22 22 23 23 22 22
4 2 2 1 2 5 6 7 9 11 15 14 17 17 17 18 18 16 15 14 13 11 11 14 13 16 18 17 19 18 16 16 15 16 16 17 17 18 17 17 18 17 19 19 20 21 22 22 22 22 22 22 22 22
2 2 2 3 4 7 9 9 9 14 14 15 15 15 16 16 15 16 15 14 13 13 14 16 19 21 21 19 18 18 16 16 16 16 16 18 18 18 19 18 18 19 19 19 19 20 20 21 20 20 20 20 21 21
2 3 3 3 4 8 11 11 9 13 16 16 16 17 17 19 17 17 16 15 15 16 19 21 21 20 19 17 17 16 15 14 15 16 16 16 17 18 19 18 18 19 19 19 19 20 19 20 20 20 20 20 21 22
3 4 4 5 7 9 11 12 13 14 14 17 15 16 18 18 19 19 18 16 18 20 21 19 19 17 17 16 16 15 16 15 16 15 16 17 17 17 18 18 18 18 19 20 20 20 20 20 20 20 20 21 20 20
5 4 7 7 9 10 12 12 13 13 14 15 16 16 21 22 22 20 17 19 19 19 18 18 18 18 18 18 17 17 16 16 16 16 17 16 17 17 18 18 18 19 19 19 19 19 19 19 19 19 20 20 20 20
6 7 10 10 13 15 16 10 14 14 18 17 16 19 21 21 19 16 21 19 19 17 17 18 17 17 18 17 17 18 18 17 18 18 18 17 17 17 17 17 17 18 18 18 17 18 18 19 19 19 19 19 20 20
9 14 16 17 15 18 15 17 13 15 16 18 19 21 21 20 18 20 23 21 19 17 17 17 17 19 19 19 20 20 20 18 18 18 18 17 18 17 16 16 16 16 15 16 16 17 17 18 18 18 18 19 19 19
14 18 18 23 20 21 23 25 22 20 24 22 21 21 22 19 24 25 24 22 21 21 22 20 19 19 20 21 20 19 20 18 18 19 18 17 17 17 17 16 16 16 15 16 17 17 18 18 18 18 18 19 19 20
21 23 22 23 24 22 23 25 27 25 25 26 23 22 23 25 28 28 22 23 23 22 23 22 21 20 20 20 20 19 19 18 18 19 19 18 18 18 18 18 17 17 15 15 16 16 16 16 17 17 18 18 19 19
26 25 20 18 18 20 24 24 21 23 26 26 25 28 28 31 30 25 21 22 20 21 21 20 19 19 19 20 19 19 19 19 18 19 18 18 17 17 17 18 18 17 15 15 15 15 15 15 15 16 16 16 16 17
24 22 25 27 26 23 28 29 29 28 27 23 25 31 29 28 26 22 20 22 21 20 20 21 20 20 20 21 21 19 19 20 20 20 19 18 19 19 20 20 20 19 19 17 15 15 15 15 15 16 16 16 17 17
27 25 24 30 28 28 28 29 27 23 22 26 30 30 27 23 23 22 21 20 20 20 22 23 25 25 25 25 26 25 23 21 20 23 22 21 21 19 21 22 21 21 21 18 16 15 16 17 17 17 18 17 18 17
27 24 28 31 32 30 29 27 26 26 24 24 22 22 23 24 23 23 21 21 22 23 25 25 27 25 25 24 25 25 27 27 24 20 21 21 21 21 23 23 23 22 23 20 18 17 16 17 17 18 18 19 19 19
24 27 29 29 30 27 27 29 32 30 30 29 30 28 26 24 22 22 24 25 27 28 26 27 28 30 26 27 25 26 25 26 30 27 25 24 24 23 23 25 25 25 23 21 21 20 20 21 21 20 19 20 23 21
30 32 30 31 29 27 27 30 32 30 29 27 29 32 29 27 27 23 26 26 26 26 28 27 26 25 28 29 31 30 31 27 27 27 26 25 24 25 26 25 26 24 22 22 22 23 21 21 21 21 22 23 24 24
31 33 32 28 28 27 26 26 26 27 28 28 30 32 30 27 26 25 26 26 25 24 26 27 28 28 29 28 27 29 31 28 31 25 27 27 29 27 26 26 24 23 22 23 23 23 23 23 23 24 25 25 26 26

GFSWCAN_con_lsi_114.txt.gz
Lid_Strength_Index
2 2 2 1 1 0 0 0 1 1 1 1 1 1 1 1 1 2 3 2 4 7 7 7 7 8 8 7 9 7 7 7 6 10 10 10 11 10 12 10 12 13 14 13 12 15 16 6 7 12 9 6 7 7
2 2 1 1 1 1 1 -0 0 1 1 1 1 1 1 1 1 2 4 2 2 6 6 5 4 4 4 5 6 6 7 7 5 8 7 8 10 9 10 14 9 13 12 13 11 11 6 6 7 6 5 7 7 6
2 2 1 1 0 0 0 0 0 0 0 0 1 1 1 1 1 2 3 3 4 7 7 7 7 3 2 2 2 7 6 5 5 4 7 8 12 8 12 11 10 9 7 11 11 9 9 8 6 6 6 6 6 5
1 2 1 1 1 1 -1 -1 -1 0 0 0 1 1 1 1 1 2 3 2 4 6 9 8 3 5 2 2 2 2 3 2 2 4 7 8 10 7 9 10 11 9 9 10 10 9 9 9 9 8 7 8 8 7
1 1 1 1 1 2 -0 -1 -1 -0 0 0 1 1 1 1 1 1 1 2 2 5 10 8 4 3 3 3 3 2 3 4 6 7 8 9 7 7 8 8 10 8 11 12 12 10 9 10 9 8 10 10 9 9
0 1 1 1 1 2 0 -1 -1 -0 0 -0 0 1 1 1 1 2 7 2 1 3 7 10 4 5 3 2 3 3 3 4 6 7 8 6 5 7 10 11 8 8 8 9 11 9 10 9 9 8 10 11 12 12
-0 0 1 1 0 1 -1 -1 0 0 -0 -0 0 1 1 1 1 4 5 3 2 2 8 10 8 4 3 3 3 4 3 5 6 7 7 6 6 6 8 11 9 9 9 9 9 10 10 11 11 10 8 10 11 11
-0 -0 0 0 0 1 -1 -1 -1 -0 -0 -0 0 1 1 1 2 4 2 2 2 5 6 10 8 6 3 6 7 4 6 6 6 6 6 7 5 6 10 8 9 9 9 10 10 10 11 11 10 11 10 9 11 12
-1 -0 0 0 0 -0 -1 -1 -1 -0 -1 -0 0 1 2 3 5 4 2 2 3 6 9 9 9 9 4 6 5 5 5 9 5 8 7 6 8 10 9 9 10 11 12 12 10 11 11 12 12 12 12 12 12 12
-0 -0 -0 -0 0 -1 -1 -1 -1 -1 -0 0 1 5 7 4 2 1 4 6 7 7 6 9 4 8 5 6 8 8 7 8 11 8 5 9 9 10 10 10 11 11 12 11 13 14 14 14 14 14 14 14 13 13
-0 -0 -0 -1 -1 -1 -0 -0 -1 -0 1 3 6 6 2 1 3 6 8 9 9 9 7 7 6 7 4 8 9 7 9 9 12 9 10 10 11 12 11 11 10 11 11 12 13 14 14 15 15 15 15 15 15 14
-0 -0 -1 -1 -1 -0 -0 0 0 2 3 3 3 2 3 5 7 9 10 9 9 9 6 8 8 6 5 4 7 7 10 9 13 7 10 12 13 12 12 12 12 11 12 13 14 14 15 16 16 15 16 16 16 16
-0 -1 -1 -1 -0 -1 -0 0 0 1 1 2 4 6 7 7 11 12 13 11 10 7 6 7 9 6 5 5 8 9 12 12 7 11 12 13 13 12 12 12 13 13 13 14 15 15 16 17 17 17 17 17 16 17
-1 -1 -1 -1 -0 0 0 1 1 1 3 6 8 10 9 11 10 9 9 8 6 6 6 6 7 8 7 9 9 11 10 9 13 14 15 13 13 13 13 13 14 15 16 17 17 17 18 18 19 19 19 18 18 18
-0 -0 -0 1 1 1 1 1 1 2 5 7 7 10 10 9 8 8 7 7 7 5 6 6 7 7 9 9 9 10 12 14 14 15 15 13 13 13 14 14 15 16 17 17 18 19 20 20 20 20 20 19 19 19
0 1 2 1 1 1 2 3 4 4 6 9 10 10 9 9 9 9 8 9 8 7 5 6 9 10 10 9 11 13 13 14 15 13 13 13 14 14 14 15 15 16 16 17 17 18 19 20 20 20 19 20 19 19
2 4 2 1 2 2 3 4 5 8 9 12 12 11 10 10 10 10 10 10 9 8 9 8 11 12 9 11 14 13 13 13 13 13 13 13 14 15 15 15 16 16 17 17 18 18 19 18 18 18 19 19 18 19
3 2 2 2 3 4 5 5 8 10 13 11 12 12 13 12 12 12 11 11 10 8 8 11 10 13 13 13 14 14 13 12 12 12 13 13 14 14 14 14 15 15 16 17 18 18 18 18 17 17 18 18 18 18
2 2 2 3 3 5 8 8 8 13 12 12 12 12 12 13 12 12 11 11 11 11 10 11 14 15 15 14 14 14 13 12 13 13 13 14 14 15 15 15 15 15 16 16 15 15 16 18 17 16 16 16 16 16
2 2 3 2 3 7 10 10 8 11 12 12 12 13 13 13 13 13 12 12 12 13 15 16 16 16 15 14 13 13 12 11 12 14 14 14 14 15 15 14 14 15 15 16 16 17 16 16 16 16 16 16 16 17
2 3 3 4 6 7 9 10 11 11 12 13 13 12 14 13 13 14 13 13 14 16 16 15 15 15 14 14 13 13 13 12 13 12 13 14 13 13 14 14 14 14 15 15 15 17 17 16 16 16 16 17 17 17
4 3 5 5 7 8 9 8 10 10 11 12 12 12 13 14 14 14 13 15 16 16 15 15 15 14 15 15 15 14 14 14 14 14 14 14 14 14 14 14 14 15 15 15 15 16 16 16 16 16 16 17 17 17
4 4 6 7 10 10 12 8 11 11 14 14 13 15 15 14 14 13 16 16 16 14 15 15 15 15 16 16 16 16 15 14 14 13 13 13 13 13 13 13 13 13 14 14 13 14 15 16 16 15 15 15 16 16
7 10 11 11 10 13 10 12 11 12 13 14 15 17 17 16 15 16 19 17 16 14 14 15 14 15 15 15 15 15 15 13 13 14 13 13 13 14 13 13 13 13 13 13 13 13 14 14 16 14 15 15 15 15
9 14 13 15 13 14 15 15 15 15 17 16 17 18 17 15 18 19 19 17 16 15 15 14 14 13 14 15 14 15 15 12 13 14 14 13 13 13 13 13 13 13 12 12 13 13 13 13 14 14 14 14 16 17
16 17 15 16 15 15 15 17 17 17 17 18 18 17 16 17 20 20 18 17 16 15 15 14 15 15 15 14 14 14 14 13 12 14 15 14 13 13 13 13 13 13 12 12 12 12 12 12 12 14 13 15 16 16
17 18 16 16 15 16 17 16 16 16 18 18 18 19 19 20 20 19 17 16 15 15 14 14 13 14 15 15 15 15 14 14 14 14 14 15 15 14 13 13 15 14 13 12 12 12 12 12 12 12 12 12 13 13
18 17 19 19 19 18 19 19 18 19 18 17 18 20 20 19 20 17 15 16 15 15 15 15 15 14 15 16 15 15 15 15 16 15 15 15 15 14 15 14 14 15 14 13 12 12 12 12 12 12 12 12 13 12
19 18 18 24 22 21 22 21 20 19 19 18 20 21 21 19 18 17 17 16 15 15 17 18 18 18 18 18 18 17 15 14 16 19 20 16 15 15 15 14 14 13 13 12 12 12 13 13 13 12 13 12 12 12
21 18 22 24 24 23 22 21 20 20 20 19 19 20 20 19 19 17 17 16 16 16 16 17 18 17 18 17 19 19 19 18 18 17 17 17 16 16 16 15 15 14 14 13 13 12 14 13 13 13 13 13 12 13
20 20 22 22 23 21 21 22 22 21 20 21 20 20 20 19 18 18 17 17 18 19 18 19 20 18 19 19 17 18 19 19 22 20 19 17 17 16 16 17 16 15 14 14 14 13 13 13 13 14 15 16 17 16
20 22 23 24 24 21 21 20 20 20 20 19 21 21 21 19 20 19 19 19 19 18 19 18 18 19 19 20 21 20 21 20 20 21 21 19 17 18 17 16 16 15 15 15 15 15 15 16 15 15 16 18 18 18
22 22 22 22 22 22 21 20 20 21 20 21 21 20 20 19 21 18 20 19 17 16 18 18 18 20 21 21 20 21 21 21 23 21 23 24 25 21 17 16 15 15 16 15 16 16 17 17 17 18 19 20 20 20

GFSWCAN_con_lsi_117.txt.gz
Lid_Strength_Index
1 2 1 1 1 1 1 0 0 0 1 1 1 1 1 1 1 1 2 1 4 7 6 6 6 7 7 7 9 7 7 6 7 10 10 10 10 9 10 10 11 12 14 14 12 14 16 7 8 13 10 7 8 8
1 1 1 1 1 1 0 -0 0 0 1 1 1 1 1 1 1 1 3 1 1 5 6 3 3 3 4 5 6 5 7 7 5 8 8 8 11 9 10 13 8 14 11 13 12 12 8 7 8 7 7 8 8 7
1 1 1 1 0 0 0 -0 -0 -0 0 0 0 1 1 1 1 1 2 2 3 5 6 6 6 3 2 2 2 7 6 5 5 3 6 7 11 8 12 11 10 8 7 10 10 9 9 9 9 8 8 9 8 7
1 1 1 1 1 0 -0 0 1 -1 -0 -0 0 0 1 1 1 1 2 1 3 5 8 7 3 4 2 2 2 2 3 2 2 3 6 7 9 6 9 8 9 9 9 10 9 8 8 8 9 9 9 10 9 9
0 1 1 1 1 0 1 -0 0 1 0 -0 -0 0 0 0 0 0 -0 1 1 5 8 7 4 3 2 2 3 3 3 4 5 6 7 8 6 7 7 8 10 8 10 11 12 9 10 9 9 8 10 11 10 9
-0 0 0 1 1 1 1 0 -0 0 -0 -0 -0 -0 0 0 0 2 6 1 1 2 6 9 4 4 3 3 3 3 3 4 5 6 7 6 4 6 9 10 8 8 8 8 10 8 8 9 8 8 9 10 9 11
-1 -0 0 0 0 0 1 2 -1 -1 -0 -0 -1 -0 -0 0 0 3 4 2 1 1 6 9 7 4 4 3 3 4 3 4 5 6 7 6 6 6 8 11 8 8 8 8 8 8 9 10 11 9 8 8 8 9
-1 -1 -0 0 0 0 1 2 -0 -1 -1 -1 -1 -1 -0 0 1 3 1 1 0 3 4 9 8 6 3 6 7 4 5 5 5 6 5 7 5 6 9 7 7 7 8 9 8 8 10 9 9 9 9 8 9 10
-1 -1 -0 -0 -0 0 1 -0 -0 1 -0 -1 -1 -1 0 2 4 2 2 2 2 4 8 8 9 10 3 5 5 5 5 9 4 8 7 6 8 10 8 8 9 9 10 11 9 9 9 10 10 10 10 10 11 11
-1 -1 -0 -0 -0 1 1 -1 -1 -1 -1 -1 -0 4 6 3 0 1 3 5 6 5 5 9 5 8 5 6 7 8 7 9 11 8 5 8 8 7 8 9 9 9 9 10 12 12 12 13 12 12 12 12 12 12
-1 -1 -0 0 1 2 0 -1 -1 -1 -1 1 4 4 1 -0 2 4 8 9 8 10 7 6 5 7 3 8 8 6 8 9 12 9 9 10 10 10 9 9 9 9 10 10 11 12 13 14 14 13 13 13 14 14
-1 -0 -0 0 0 -0 -1 -1 -1 0 1 1 1 1 1 4 7 9 9 8 9 10 6 7 6 5 5 3 7 7 9 8 12 6 10 12 12 10 10 10 10 10 11 11 12 13 14 15 16 15 15 16 16 16
0 -0 0 0 -1 -1 -1 -1 -1 -1 -1 0 3 5 6 7 11 11 12 11 9 6 6 6 8 5 5 5 7 8 11 11 7 11 12 12 11 11 11 11 12 11 12 13 13 14 14 15 16 17 17 16 16 16
-0 0 0 -1 -1 -1 -1 -0 -0 -0 1 5 7 10 9 10 9 8 8 7 6 6 6 6 7 7 6 8 8 12 10 9 13 14 13 12 12 12 12 12 13 14 15 15 16 16 16 16 17 17 17 16 17 17
-1 -1 -1 -1 -0 0 -0 -0 0 -0 3 6 7 11 10 7 7 7 6 6 6 4 5 7 6 6 8 9 9 9 12 13 12 13 13 12 12 12 13 13 14 15 16 16 16 17 18 18 17 18 17 17 17 17
-1 -1 -0 -1 0 -0 0 1 1 1 4 7 8 9 7 8 9 7 7 8 5 5 4 4 9 9 10 9 11 12 12 13 12 12 11 12 12 13 13 13 14 14 15 15 16 16 17 18 18 17 17 17 18 18
-0 1 0 0 1 1 2 2 2 6 7 9 10 9 9 8 8 9 8 8 6 7 9 8 11 12 8 10 11 10 12 12 12 12 12 12 13 13 13 14 14 14 15 15 16 16 16 16 16 16 17 17 16 17
2 0 1 1 1 2 3 3 6 7 12 9 10 10 10 10 10 10 9 9 8 7 7 8 7 10 11 13 12 12 12 11 10 11 12 12 13 13 12 13 14 14 15 16 16 16 15 15 15 15 16 16 16 16
1 1 2 2 2 3 6 6 5 10 10 10 10 10 10 11 10 10 9 9 9 8 7 8 11 10 12 11 12 11 11 11 12 12 12 12 13 13 13 14 14 14 15 14 14 14 14 16 15 15 14 14 15 15
2 2 2 3 2 5 8 8 5 9 11 11 10 10 11 11 10 10 10 9 9 9 11 12 13 13 12 12 11 11 10 10 11 12 13 13 12 13 13 13 13 13 13 14 14 16 14 14 14 14 15 15 15 15
3 2 3 3 4 5 7 8 9 9 10 11 10 10 11 10 11 11 11 9 10 12 13 13 14 13 12 11 11 11 11 10 11 11 11 13 12 12 12 13 13 13 13 14 14 14 15 15 15 15 15 15 15 15
3 3 4 4 7 7 8 6 8 8 10 11 11 10 11 12 12 11 10 12 13 14 12 12 13 13 13 14 14 12 12 12 12 12 12 12 12 12 12 12 12 13 13 13 13 14 14 14 14 14 14 14 15 15
3 3 5 6 9 9 11 6 10 10 12 12 11 13 13 12 12 11 13 13 14 13 13 13 13 13 13 13 13 12 12 11 12 12 11 11 11 11 11 11 11 12 12 12 12 12 13 15 14 13 13 13 13 13
4 7 8 9 9 11 9 11 9 11 11 12 13 15 14 13 13 13 15 14 14 13 13 13 12 13 12 13 12 13 12 11 11 12 10 11 12 12 11 11 12 12 12 12 12 12 12 12 14 12 13 13 13 13
9 12 10 12 10 11 12 12 12 12 14 13 14 15 15 13 15 15 15 15 14 13 13 12 12 11 12 13 12 13 12 11 11 13 12 11 11 11 12 12 12 12 11 11 11 11 11 11 11 11 12 12 13 14
12 14 12 12 12 12 12 14 14 14 14 15 15 14 13 14 16 17 14 14 13 13 13 12 12 12 12 11 12 13 13 11 11 12 12 11 12 12 12 12 12 12 11 10 11 11 10 10 11 13 12 13 14 13
14 14 13 12 11 12 12 12 12 13 15 16 15 15 15 17 17 15 13 12 13 12 11 11 11 11 12 13 13 12 12 12 12 12 12 12 12 12 13 13 14 13 11 11 10 10 11 11 11 11 11 10 11 11
14 13 16 15 15 13 16 15 15 15 14 13 14 17 17 16 16 14 13 12 12 12 12 12 11 12 12 13 13 13 13 13 14 13 13 13 13 13 14 13 12 14 12 11 11 10 10 11 11 11 11 11 11 10
15 14 15 21 18 17 17 16 15 15 15 14 15 17 18 16 15 15 14 13 12 13 14 15 15 14 14 14 14 13 13 13 14 17 18 14 13 14 13 13 12 12 11 11 11 11 11 11 11 11 11 11 11 11
17 14 17 20 20 19 17 16 16 17 16 16 16 18 17 17 16 14 14 14 14 14 13 14 14 14 15 15 16 16 14 14 14 14 14 15 14 15 14 13 13 12 12 11 11 10 12 11 11 11 11 11 11 12
15 15 18 18 19 17 18 18 18 17 17 17 16 16 17 18 17 14 14 13 13 14 15 16 15 14 15 16 15 16 17 16 18 17 15 15 15 14 15 15 13 12 12 12 12 12 11 11 11 13 13 14 15 14
16 18 19 21 20 19 18 18 17 17 18 18 19 18 18 17 18 17 16 15 15 15 15 15 15 16 14 15 16 17 17 17 18 18 18 16 15 17 15 14 14 13 13 13 12 12 13 14 12 13 13 16 16 16
18 18 18 20 20 20 19 18 18 19 18 18 18 17 16 16 18 16 15 14 14 14 15 14 14 16 18 17 17 18 18 18 19 20 20 21 22 19 15 14 13 14 15 14 13 13 15 17 15 16 16 17 17 17

GFSWCAN_con_lsi_120.txt.gz
Lid_Strength_Index
2 2 1 2 2 1 0 0 1 1 1 2 2 2 2 2 2 3 4 2 4 7 6 5 6 7 7 7 9 7 8 7 8 10 10 11 12 10 11 10 11 13 14 14 14 15 17 9 8 13 10 9 9 11
2 1 1 1 1 2 2 0 0 0 0 1 1 1 1 1 1 1 4 1 1 4 6 3 3 3 4 5 7 6 7 7 7 9 9 9 11 9 10 13 9 14 12 14 13 13 9 9 10 10 9 10 10 11
1 1 1 1 1 1 1 1 0 -0 -0 0 1 0 0 0 1 1 2 1 2 5 6 6 6 3 3 3 2 7 6 5 5 4 7 8 11 8 12 11 11 8 7 11 10 9 9 9 9 9 10 10 10 10
1 1 1 1 1 0 1 1 -0 -0 -0 0 0 0 0 1 1 1 2 1 2 5 9 7 3 4 2 2 3 3 4 3 3 4 7 8 10 6 9 9 9 9 8 10 9 8 8 8 9 9 9 10 10 9
0 1 1 1 1 0 1 1 0 0 -0 -1 -0 -0 -0 0 0 0 -0 0 1 5 8 7 4 3 3 3 4 3 4 5 6 7 7 9 6 7 7 7 9 7 9 11 12 9 10 9 8 9 8 9 10 10
0 0 0 1 1 1 1 0 0 0 -1 -0 -0 -1 -0 -0 0 1 6 1 0 1 6 9 4 4 3 3 4 4 4 5 5 6 7 6 4 6 9 10 8 7 7 8 9 8 8 8 8 9 9 9 9 11
-0 -0 0 0 1 1 0 1 -0 0 0 0 0 -0 -0 -0 -0 3 4 2 0 0 6 9 8 4 3 4 4 5 3 4 4 6 7 6 6 6 9 11 8 7 7 8 7 7 9 9 11 9 9 8 7 9
-1 -1 -1 -0 0 0 0 0 0 -0 -0 0 -0 -0 -0 -0 0 3 0 0 -0 3 4 9 8 7 3 6 7 3 5 5 5 6 5 7 6 6 10 7 6 7 7 8 8 7 8 8 8 9 9 9 9 10
-1 -1 -1 -1 -0 -0 0 1 -0 -1 -0 -0 -0 -0 1 2 3 2 1 -0 -0 3 8 8 10 10 4 5 5 5 5 9 5 8 7 6 8 10 9 7 7 8 8 9 9 8 9 10 11 10 10 11 11 11
-1 -1 -1 -1 -0 -0 0 1 0 -1 -0 -0 1 4 6 3 -0 0 3 5 5 5 5 9 6 9 5 6 7 7 7 9 11 8 5 9 9 7 7 7 8 8 9 9 11 12 12 13 13 12 12 12 13 13
-1 -1 -1 -1 -0 -0 1 0 -0 -0 -0 2 4 4 1 -1 1 4 7 8 7 10 7 7 7 8 4 8 8 6 9 9 12 9 10 10 11 10 8 8 8 8 9 10 11 12 12 14 14 14 14 14 14 15
-1 -1 -1 -1 -0 -0 0 0 0 1 2 1 1 0 1 3 6 8 9 8 9 10 6 7 6 5 5 4 7 7 10 9 12 7 10 12 12 10 10 10 10 10 11 11 12 13 14 15 16 15 15 16 16 16
-1 -1 -1 -1 -0 1 1 -0 -0 -1 -1 0 2 5 6 6 10 12 13 11 10 7 6 6 8 5 5 5 7 9 11 11 7 11 12 12 11 10 10 11 11 11 12 13 14 14 14 15 16 17 17 16 16 16
-1 0 0 0 0 1 -1 -1 -1 -1 1 4 7 10 9 10 9 9 8 8 6 6 6 6 7 7 6 8 8 11 9 9 13 14 14 12 11 11 11 12 13 15 15 15 16 16 17 16 16 17 17 17 17 17
0 0 0 1 -0 -0 -1 -1 -1 -1 2 6 6 10 9 7 7 7 6 6 5 5 6 7 7 7 9 9 9 9 12 14 12 14 13 12 11 12 12 13 14 15 15 15 15 17 18 18 17 17 17 17 17 17
0 1 1 -1 -0 -1 -1 -1 -1 0 3 6 7 9 7 8 8 8 7 7 5 5 5 6 8 10 10 9 11 12 12 14 13 12 11 11 12 13 13 13 14 14 14 15 15 15 16 17 17 17 17 16 17 17
0 2 0 -0 -0 -0 -0 1 2 5 6 8 8 8 8 8 8 9 8 8 6 7 9 7 10 11 9 11 12 11 13 12 11 11 11 12 13 13 13 13 14 14 14 15 15 16 16 16 16 16 16 16 16 16
1 -0 -0 0 -0 1 1 2 4 6 9 8 9 9 9 8 9 9 9 8 8 7 7 9 7 10 11 13 12 12 11 10 10 11 12 12 12 12 12 13 14 13 14 15 15 15 15 15 15 15 15 15 16 15
1 1 0 0 1 2 5 5 4 9 9 9 9 9 9 10 9 8 9 8 8 7 7 8 10 10 12 11 11 11 11 11 12 12 12 12 12 13 13 13 13 14 14 14 14 14 14 15 15 15 14 14 15 15
1 1 1 1 1 4 7 7 4 8 9 10 9 10 10 10 10 9 9 9 8 8 10 11 12 12 11 11 10 10 10 10 11 13 13 13 12 12 13 13 13 13 13 13 14 15 13 14 14 15 15 15 15 16
2 2 1 1 3 4 6 7 8 8 9 10 9 9 11 10 10 10 10 9 10 11 13 12 13 12 11 11 10 10 11 10 12 11 12 13 11 12 12 12 12 12 13 13 13 13 13 14 14 14 14 15 15 15
3 3 2 3 6 6 7 6 8 7 9 10 10 10 11 11 11 11 10 11 12 13 11 12 13 13 13 13 13 12 11 11 10 10 10 10 11 11 11 11 11 12 12 12 12 13 13 13 13 13 13 13 13 15
3 3 4 6 8 9 10 6 10 9 12 11 10 12 12 12 11 10 13 12 13 12 11 12 12 12 13 12 12 11 11 11 11 11 11 11 11 10 11 11 11 11 12 12 12 12 13 15 13 13 13 13 13 13
4 7 7 8 8 10 9 10 9 10 11 12 12 14 13 12 12 13 14 13 13 12 13 13 12 13 12 12 12 12 11 11 11 11 10 11 12 12 11 11 11 12 12 11 12 12 12 12 14 12 12 12 13 13
8 10 9 11 9 11 12 12 12 12 13 12 13 13 14 13 14 14 14 14 14 13 13 12 12 12 12 13 12 13 12 10 12 13 11 10 11 11 11 12 12 12 12 12 12 11 11 11 11 11 12 12 13 13
11 12 12 10 11 11 11 13 13 13 13 13 13 12 12 13 15 15 13 13 13 13 13 12 12 12 12 12 13 13 13 11 11 13 13 12 12 12 12 12 13 14 12 12 12 12 11 10 11 11 11 12 16 13
13 12 11 10 9 10 11 11 10 12 14 14 14 14 14 17 15 14 12 12 13 11 11 10 11 11 12 13 12 12 12 12 12 12 12 12 12 12 13 14 15 15 13 12 11 11 11 11 11 10 10 10 11 11
12 11 14 13 12 11 13 13 14 14 13 11 12 15 16 15 15 13 12 11 11 11 11 11 11 11 12 13 13 13 13 14 13 13 13 13 13 13 13 13 14 14 13 12 12 11 11 11 11 10 10 11 11 11
13 12 13 18 15 14 14 14 13 13 14 13 13 15 16 16 14 13 13 12 11 12 13 14 14 13 13 13 12 13 13 13 14 16 17 15 15 15 14 14 14 13 12 11 12 12 12 12 12 11 11 11 11 11
15 12 15 18 18 17 15 15 15 15 15 15 15 17 17 17 15 12 13 13 14 14 13 13 14 14 15 15 16 15 14 14 14 14 15 15 16 15 15 15 15 14 13 12 12 12 13 12 11 11 11 11 12 12
14 14 16 16 17 16 16 16 16 15 15 16 15 15 17 18 16 13 13 13 12 13 14 15 14 14 15 15 15 17 18 16 17 17 15 15 15 15 15 16 15 14 13 13 13 13 13 12 12 12 13 14 14 14
15 16 18 19 18 18 17 17 17 17 17 17 17 17 18 18 19 17 15 13 14 15 15 14 15 15 14 15 16 16 16 17 18 18 17 16 16 16 15 15 15 14 14 14 14 13 13 13 13 13 13 14 15 16
17 16 16 18 19 20 18 17 18 18 17 17 18 18 17 16 18 16 14 13 13 13 14 13 13 15 16 16 17 17 17 18 20 19 21 21 22 19 16 15 15 15 15 14 14 14 14 14 15 15 15 17 16 17

GFSWCAN_con_lsi_123.txt.gz
Lid_Strength_Index
2 2 2 2 2 1 1 1 1 2 2 2 2 2 2 2 2 4 7 5 8 11 10 7 7 9 9 10 13 9 10 10 11 14 14 14 14 12 12 11 13 14 15 16 14 16 18 10 10 14 12 10 10 11
2 2 2 2 2 2 1 0 1 1 1 2 2 2 2 2 2 3 7 4 4 9 9 6 6 5 6 7 9 9 10 9 9 12 10 11 13 13 12 16 10 14 12 14 13 13 9 10 11 9 9 11 11 10
2 2 1 1 1 2 2 2 1 0 1 1 2 2 2 1 2 3 6 5 6 9 9 9 8 5 4 5 5 10 9 7 8 7 12 12 14 12 15 14 13 9 8 12 11 10 10 10 9 9 8 10 10 9
1 1 1 1 1 1 1 2 2 0 0 0 1 1 1 1 1 2 6 4 6 8 14 10 4 6 4 4 5 5 7 6 6 7 11 13 13 9 13 10 14 10 10 12 11 9 9 9 10 9 9 9 10 9
1 1 1 1 1 1 1 1 2 1 -0 -0 0 0 0 0 0 2 4 3 3 7 11 10 6 4 4 4 5 6 6 8 9 11 13 13 10 10 9 10 14 9 12 15 16 9 10 9 8 9 9 9 9 10
1 1 1 1 1 1 0 0 1 1 -0 -1 -0 0 -0 0 1 4 9 4 3 4 10 14 6 6 4 5 6 6 6 8 9 10 12 9 7 10 13 12 9 7 8 9 11 8 8 8 9 9 9 9 8 9
-0 0 1 1 1 1 1 1 0 1 0 -1 -1 -1 -1 -0 2 6 7 4 1 3 11 14 12 6 4 5 6 6 7 7 8 9 10 9 9 8 12 12 8 7 7 7 7 8 11 11 13 11 9 9 8 9
-1 -0 0 0 0 1 0 1 0 0 -0 -0 -0 -0 -0 -0 1 4 3 1 2 6 7 15 12 8 5 10 10 7 9 8 8 9 9 9 8 9 12 8 7 6 7 7 8 7 9 9 10 10 10 10 11 11
-1 -1 -1 -0 0 0 0 -0 -0 -0 -1 -0 0 0 2 3 5 3 -0 0 2 6 13 13 14 15 6 9 7 9 8 10 7 10 10 9 10 12 9 8 8 8 9 10 9 10 10 11 12 11 12 13 13 13
-1 -1 -1 -0 -0 -0 -0 -0 -1 -0 -0 0 3 5 8 5 -1 0 3 6 7 9 9 11 9 11 6 9 12 10 9 11 14 10 7 11 11 8 8 8 8 9 10 10 12 14 14 14 14 13 14 14 14 14
-1 -1 -1 -1 -0 -0 -0 0 -0 -1 -0 3 6 6 3 -0 3 5 9 11 12 11 9 9 9 10 5 11 12 10 12 11 13 11 11 12 12 10 9 9 9 10 10 11 12 14 15 15 15 14 15 15 15 16
-1 -1 -1 -1 -1 -0 0 0 -0 3 4 3 3 2 3 5 8 11 12 11 11 12 10 11 10 8 6 5 10 10 11 11 14 8 11 14 12 10 10 11 11 11 12 13 13 14 15 16 16 15 16 16 16 17
-1 -1 -1 -1 -1 -0 -0 -1 1 0 -0 1 3 6 7 10 16 15 17 13 14 10 9 10 11 8 8 6 10 11 12 15 9 14 15 14 12 11 12 12 13 13 13 14 15 15 15 16 16 16 17 17 16 17
-1 -1 -1 -1 -0 -0 -1 -0 0 -0 2 6 10 12 13 15 12 11 12 11 9 9 7 8 10 9 9 11 10 11 12 12 13 15 16 13 12 12 12 13 14 15 15 16 17 17 17 16 17 17 18 16 17 18
-1 -1 -1 -1 0 1 1 -0 -1 0 4 9 9 16 13 9 8 8 8 8 7 7 6 9 9 8 11 12 9 11 15 15 13 15 14 13 12 12 13 13 15 15 17 18 20 22 22 21 19 21 20 20 18 19
-1 -1 1 0 1 0 0 -0 0 2 6 8 8 12 8 9 9 7 8 7 7 7 7 8 10 10 13 11 12 12 14 15 14 14 13 13 13 13 14 15 16 18 18 20 21 19 21 23 23 21 22 22 23 22
1 2 1 0 0 0 -0 2 3 6 7 8 11 10 9 8 9 9 8 9 9 9 10 9 12 12 10 12 13 13 14 14 14 13 13 14 15 16 17 17 17 16 19 20 21 20 21 19 20 20 22 22 22 22
2 0 -1 -1 -0 0 2 3 6 7 9 9 10 10 9 10 9 9 9 9 8 8 9 10 9 10 14 14 14 13 12 13 13 14 15 14 15 15 14 16 16 15 18 19 18 18 19 18 16 16 17 16 19 18
1 0 -0 -0 1 3 6 6 5 10 9 9 11 11 10 12 11 11 10 10 9 10 10 9 11 12 15 12 13 13 13 14 14 15 15 15 15 16 17 16 16 18 19 19 17 18 19 19 19 19 18 16 19 21
-0 0 -0 0 0 5 7 8 5 8 10 10 10 10 11 11 10 10 10 9 9 9 11 13 15 13 13 12 12 12 11 12 14 15 16 16 15 15 16 15 17 16 16 17 18 17 14 16 18 18 19 20 19 21
2 2 1 2 4 5 7 8 9 9 9 10 10 10 12 11 11 11 11 10 13 15 16 16 15 15 14 13 12 12 12 12 14 13 14 14 12 14 15 15 13 13 14 15 14 16 17 19 18 15 19 21 18 21
3 1 3 3 6 7 8 7 9 8 9 11 11 10 12 13 12 12 11 14 17 17 15 17 17 16 16 16 14 13 15 13 13 12 13 14 15 13 17 16 14 16 17 16 15 15 18 18 18 15 18 18 18 21
2 3 6 6 9 10 11 7 11 10 13 13 11 13 13 13 13 12 16 15 17 15 13 15 14 15 16 18 17 17 16 15 15 16 15 17 17 17 16 16 16 14 16 17 14 15 18 17 18 20 16 16 15 17
4 8 8 9 9 12 10 11 9 10 11 14 13 14 13 13 13 16 16 17 18 14 15 17 15 17 17 15 17 17 17 15 16 14 15 16 17 18 16 17 17 18 17 16 16 17 18 19 19 14 17 16 20 17
11 12 11 14 10 13 12 12 13 12 14 13 15 14 17 15 19 18 17 18 16 16 16 15 15 15 16 16 19 19 17 14 16 17 17 17 18 18 18 17 17 18 17 19 20 19 16 20 19 19 19 20 19 18
13 15 15 13 13 12 12 13 13 13 13 14 14 15 16 18 18 18 16 18 16 16 16 15 16 13 16 15 17 18 18 15 14 18 19 17 17 18 17 16 17 19 18 21 21 21 20 15 16 17 19 18 20 21
16 16 13 11 11 11 13 13 11 13 15 15 16 19 17 20 21 18 16 16 16 15 15 14 14 15 15 15 15 16 16 16 15 16 16 16 16 17 20 21 21 21 19 20 22 21 21 21 20 18 16 13 18 20
13 13 19 17 15 13 17 14 18 18 15 13 14 18 19 21 20 17 17 15 14 14 13 14 13 14 15 16 16 17 19 19 18 17 17 17 19 21 21 21 21 17 21 22 23 21 21 21 19 15 17 18 18 20
16 14 15 21 19 17 18 18 16 16 16 16 16 19 21 19 17 15 15 15 14 14 17 17 16 15 16 17 17 18 20 21 21 23 23 21 23 22 22 23 22 23 23 19 17 20 21 21 21 21 21 20 20 22
16 13 17 21 23 21 20 18 18 18 18 18 18 19 20 21 19 16 16 16 16 16 17 17 18 18 19 18 18 20 19 21 20 23 25 23 22 23 25 25 24 24 24 24 24 21 15 21 16 17 18 22 22 21
14 16 16 18 21 19 19 19 20 20 21 21 20 19 21 22 20 16 17 17 17 16 17 18 19 19 20 21 22 23 26 25 25 24 21 21 22 23 26 25 25 24 23 24 24 24 24 22 21 19 22 25 25 25
17 17 21 21 21 21 20 21 22 22 22 23 21 21 22 24 24 22 19 17 15 16 18 17 17 18 18 19 21 22 21 22 24 26 24 23 22 25 25 24 24 24 25 25 25 25 25 23 23 22 21 24 25 26
19 19 18 21 24 24 22 22 21 21 21 21 21 22 22 22 22 21 20 17 15 16 16 16 17 18 19 19 20 21 22 23 24 21 23 24 26 24 26 24 25 25 25 25 26 26 25 25 26 26 27 27 28 28

GFSWCAN_con_lsi_126.txt.gz
Lid_Strength_Index
3 2 2 2 2 1 1 1 2 2 2 2 2 2 2 2 3 6 8 6 8 12 10 8 8 11 11 12 14 12 12 11 13 16 15 16 14 12 13 12 13 14 14 17 15 16 19 11 11 15 12 11 11 11
2 3 2 2 2 2 1 1 1 1 2 2 2 2 2 2 2 4 8 5 5 10 10 8 7 7 8 8 11 11 11 11 11 13 12 12 13 14 13 17 11 16 13 15 14 14 9 9 11 10 9 10 11 10
2 2 2 2 2 2 1 1 1 1 1 1 2 1 2 2 2 5 8 7 7 11 12 11 11 8 6 6 6 11 10 8 9 9 13 13 15 13 16 15 15 11 8 13 11 10 10 10 9 10 9 10 9 9
2 2 1 1 1 2 2 2 1 1 1 1 1 2 1 1 2 4 8 6 8 10 16 12 6 8 6 6 6 7 8 7 7 9 13 14 14 10 14 12 15 12 11 13 11 9 9 9 10 10 9 8 9 9
1 2 2 1 1 1 2 2 2 0 1 1 1 1 1 1 2 5 7 6 5 10 13 12 8 6 5 6 7 7 8 9 11 12 14 14 11 11 11 11 15 9 13 14 15 9 10 9 9 9 9 10 9 10
1 1 1 1 1 1 1 2 2 1 0 -0 0 0 1 1 3 6 11 7 5 6 12 15 8 7 6 6 7 7 8 9 10 11 13 11 9 11 15 13 9 8 7 9 11 7 7 8 9 9 10 8 8 10
0 1 1 1 1 1 1 1 1 1 -0 -0 -0 0 0 1 5 8 10 7 3 5 12 14 12 8 6 7 8 8 7 9 9 11 12 11 10 9 13 13 8 7 7 8 8 8 10 12 14 10 10 10 9 10
-0 0 1 1 1 1 1 1 1 1 1 -1 -0 -0 0 1 3 6 5 2 3 7 9 16 13 10 6 10 10 7 9 8 8 10 11 11 10 10 12 9 7 6 6 7 8 7 9 11 10 11 11 11 12 13
-0 -0 -0 0 0 0 0 0 -0 -0 -1 -1 -1 -0 2 5 6 5 1 2 4 8 14 15 15 16 6 8 8 9 9 12 9 12 11 10 11 12 9 8 8 7 9 10 10 11 11 12 12 13 14 14 14 14
-1 -1 -0 -0 0 -0 0 0 0 -0 1 1 3 6 8 5 1 1 5 10 11 11 10 13 11 15 6 10 14 11 12 13 14 11 8 11 11 9 9 9 10 11 11 10 11 14 14 14 14 14 15 15 15 15
-1 -1 -1 -0 -0 0 0 0 -0 1 2 4 7 7 5 -0 4 6 9 14 14 11 10 10 10 11 6 9 13 12 12 11 13 11 11 11 12 11 10 11 11 11 11 12 13 14 14 15 15 15 16 15 16 16
-1 -1 -1 -0 -0 0 0 0 1 4 4 4 3 2 3 6 9 14 13 13 11 12 10 12 11 10 9 5 10 10 11 11 14 9 11 14 13 12 12 13 13 13 13 13 13 14 15 15 15 16 16 16 17 18
-1 -1 -1 -1 -0 -0 -1 -0 1 1 1 3 4 8 10 12 13 13 16 13 16 11 10 11 13 10 8 6 9 13 16 15 10 13 16 15 12 13 13 13 14 13 14 14 15 14 15 16 16 16 17 17 16 17
-1 -1 -1 -1 -1 -0 -1 0 0 0 2 7 10 12 16 15 14 12 12 12 10 11 10 9 11 10 10 10 10 14 13 14 18 15 16 15 13 13 13 13 14 15 15 16 17 16 17 17 19 19 20 19 18 18
-1 -1 -1 -1 -1 -1 -1 0 -0 0 5 9 11 18 14 13 11 9 8 11 8 9 7 8 9 9 10 12 9 10 12 14 14 16 18 14 13 13 14 14 15 15 18 18 19 20 21 21 21 22 21 21 19 22
-1 -1 1 -1 -0 -1 -1 0 1 3 7 9 10 13 13 11 9 7 10 8 7 7 7 7 10 11 13 13 11 12 14 15 15 15 14 13 14 14 15 15 16 17 18 20 22 22 23 24 24 22 23 23 25 24
-0 3 -1 -1 0 -1 0 2 5 6 8 9 11 13 12 10 10 12 9 9 10 7 9 9 11 14 11 14 13 13 17 16 14 14 16 15 16 17 18 17 18 17 20 21 22 21 21 21 23 21 22 23 24 24
2 1 -0 0 1 2 2 4 8 8 10 11 12 14 14 13 13 14 9 9 8 9 9 9 9 12 17 14 15 14 14 15 15 15 17 18 17 16 14 15 15 17 19 20 19 20 21 19 18 18 19 20 20 20
1 1 1 1 1 5 7 7 6 10 12 12 13 14 14 16 16 15 11 9 9 8 10 11 13 17 16 16 15 15 15 17 15 18 19 19 16 16 16 16 16 18 19 19 17 18 20 21 20 20 20 18 22 20
-0 0 0 -0 0 6 7 8 5 9 11 10 11 13 13 16 14 11 12 11 9 10 14 16 19 17 17 14 16 14 15 14 15 16 19 18 17 17 17 16 18 19 17 17 19 15 16 17 19 19 20 20 21 23
1 2 1 2 5 6 8 9 9 9 10 10 11 11 15 13 14 14 12 11 14 17 19 20 21 15 19 17 16 12 13 13 14 16 17 18 20 17 19 19 17 15 16 15 17 20 21 21 21 19 22 23 24 23
4 1 5 4 7 7 8 7 9 8 10 11 11 10 16 16 16 16 12 16 20 19 19 20 20 19 17 18 17 15 16 15 15 14 16 15 17 18 18 16 16 21 21 20 17 20 21 20 17 19 22 23 21 23
3 4 6 7 9 10 10 8 11 10 14 15 11 13 15 15 14 11 19 17 20 18 20 18 21 20 17 20 16 16 16 14 15 16 16 15 16 18 18 20 16 18 20 20 17 18 20 20 21 22 22 20 18 18
4 8 9 9 10 14 10 12 9 10 12 14 13 14 14 14 14 18 18 22 20 17 18 18 16 18 17 15 17 19 20 16 17 18 18 16 17 21 18 19 19 20 18 18 18 20 20 23 23 19 23 20 23 22
11 13 13 14 12 14 13 13 13 13 15 14 14 15 17 16 21 22 20 21 17 20 18 17 16 16 18 21 22 21 20 15 17 17 19 19 21 19 19 19 20 21 20 18 22 21 19 24 24 24 23 25 21 22
16 16 15 15 16 14 13 15 14 15 15 15 16 16 19 21 19 21 18 20 21 20 18 17 17 18 18 17 19 20 19 17 16 19 20 19 18 17 20 21 24 22 22 24 24 25 25 22 20 20 23 21 22 24
19 19 14 11 12 12 16 15 12 17 18 16 19 22 22 22 24 20 18 19 19 20 17 16 15 16 17 19 18 19 18 17 18 18 19 18 19 19 18 19 23 23 22 24 26 25 25 26 26 25 24 17 20 23
16 16 18 19 18 15 20 17 20 20 18 15 17 21 22 22 21 19 18 19 18 15 16 15 14 15 16 17 18 18 18 18 19 18 18 19 21 24 23 24 24 20 25 27 26 28 26 26 24 22 23 20 20 24
19 17 17 22 22 21 21 20 20 19 18 19 21 23 23 21 21 19 18 18 15 16 17 18 18 17 18 20 22 19 18 18 21 26 29 28 27 24 27 27 27 27 27 24 20 24 25 26 25 24 23 22 23 26
19 16 22 26 24 23 23 22 22 23 20 20 20 20 21 22 22 19 16 16 17 18 18 18 18 18 20 20 22 24 26 26 23 22 25 24 24 26 29 28 28 28 29 28 27 25 21 26 22 24 26 26 27 26
16 18 19 23 26 24 24 25 26 25 26 24 26 25 24 24 22 20 19 20 18 18 19 20 23 20 20 20 21 23 23 24 27 24 23 22 24 25 27 29 29 29 29 29 29 29 29 28 27 27 28 29 30 30
22 20 21 23 24 25 25 26 27 27 28 27 25 27 26 27 27 24 20 17 18 19 20 19 19 20 20 20 22 24 22 22 23 22 23 23 25 27 27 28 29 28 28 29 30 30 29 27 28 28 30 30 31 31
23 24 24 26 27 28 27 25 24 25 26 28 28 26 25 23 24 22 23 19 16 17 18 19 20 20 21 21 21 23 23 25 24 20 22 23 26 26 28 29 29 27 25 27 29 28 29 29 31 32 33 32 32 33

GFSWCAN_con_lsi_132.txt.gz
Lid_Strength_Index
2 2 1 0 1 1 2 2 2 3 3 4 4 4 5 5 5 8 9 8 10 12 11 10 9 12 12 12 13 12 13 13 14 16 15 17 16 14 14 13 13 15 17 19 16 17 19 10 11 13 12 10 10 10
3 2 2 0 0 1 1 2 2 2 3 3 4 4 4 5 5 6 9 7 7 9 10 8 8 8 9 10 12 12 12 13 12 14 15 14 15 16 15 18 12 17 15 16 14 15 11 10 10 9 9 9 10 10
3 3 2 2 1 0 1 1 2 2 2 2 2 3 4 3 3 6 8 8 9 11 11 10 10 8 7 8 8 12 12 10 12 12 14 14 16 14 18 16 16 12 10 13 12 12 11 10 9 9 9 9 8 8
3 3 2 2 1 0 1 1 1 2 2 2 2 2 3 3 3 5 7 7 8 11 13 12 7 9 7 8 8 9 9 9 10 11 14 15 15 12 15 14 16 14 12 14 12 10 10 9 9 10 9 8 8 8
3 3 2 1 2 1 0 1 1 1 2 2 2 2 2 3 4 6 7 6 6 10 13 12 9 8 8 8 9 9 10 11 12 13 14 15 12 13 13 13 17 13 15 16 17 11 11 10 9 9 9 8 9 10
3 3 2 1 1 1 0 0 1 1 1 1 1 2 2 3 5 7 10 8 5 7 12 15 10 10 9 9 10 10 10 11 12 13 14 12 11 13 16 15 11 12 10 13 13 9 9 8 9 10 10 9 9 12
2 3 3 2 1 1 1 0 0 0 1 1 1 1 2 3 6 9 10 8 5 7 13 15 13 11 9 9 10 11 10 11 11 12 13 13 12 11 15 15 11 9 9 9 9 7 10 11 13 11 10 10 10 11
3 3 2 2 1 2 1 0 0 -0 0 1 1 1 2 3 4 6 5 4 6 9 11 15 13 12 9 13 12 11 11 11 11 12 12 12 11 12 14 11 11 9 9 8 9 8 10 11 10 11 11 12 12 13
2 2 2 2 2 2 1 0 -0 0 -0 0 2 2 5 7 8 6 4 5 7 10 14 16 16 16 8 11 11 11 11 16 11 13 11 11 12 13 11 10 10 8 8 10 10 10 10 11 12 12 13 13 14 14
1 1 1 1 1 2 2 1 -0 -0 1 1 5 9 13 8 3 4 9 11 12 12 12 16 13 13 10 12 13 14 12 13 17 12 10 12 12 12 12 12 11 10 10 9 11 12 12 12 12 13 14 14 14 15
1 1 1 1 1 1 1 1 0 1 2 5 8 11 7 3 8 11 17 16 16 15 13 13 13 11 7 14 15 14 14 13 15 13 13 13 14 12 12 12 11 11 12 13 13 13 13 13 13 14 14 14 15 16
0 1 0 1 1 0 0 -0 1 4 4 5 4 3 5 9 13 15 18 14 13 14 12 13 12 11 8 7 12 11 12 12 15 10 13 17 16 13 13 13 13 13 13 13 13 14 14 14 14 15 15 16 17 16
-0 0 0 1 0 0 0 -0 1 1 1 4 6 9 10 13 18 19 19 15 14 12 12 13 15 11 8 8 10 11 13 15 10 14 17 16 14 13 13 13 14 13 14 14 15 15 15 16 16 16 18 18 17 18
-1 -1 0 0 0 0 -1 -0 -0 0 4 7 11 16 15 15 16 15 13 13 12 12 12 11 13 12 10 11 13 13 14 11 17 19 18 18 15 14 14 14 14 16 16 16 16 16 17 18 19 20 22 21 21 20
-1 -1 0 0 0 -0 0 0 1 2 5 9 10 16 16 15 14 15 14 13 9 11 10 11 11 11 12 14 12 12 12 14 15 19 19 19 14 14 15 14 16 18 20 21 22 22 24 22 21 23 24 23 21 24
-1 0 2 -0 -0 0 2 2 2 4 7 9 10 12 11 11 11 16 13 10 7 8 10 10 10 13 14 13 13 17 17 18 18 18 17 13 14 15 15 16 18 19 19 21 23 22 24 24 23 23 26 26 27 27
1 4 -0 -0 1 3 3 3 4 7 9 10 11 11 14 14 12 13 12 8 6 10 15 12 14 13 12 15 14 13 17 17 16 13 12 15 16 17 18 17 18 19 20 20 22 21 22 22 24 22 21 23 25 24
4 1 -0 1 2 4 4 3 7 8 11 11 13 12 11 13 10 10 9 8 7 9 11 11 8 12 18 16 18 17 18 14 13 15 19 18 18 18 16 17 18 17 19 21 20 21 22 21 20 21 20 22 22 21
1 1 1 1 2 4 5 7 7 12 12 11 11 13 14 11 10 10 10 9 9 10 9 11 16 15 16 17 19 20 16 16 16 19 23 23 19 17 18 18 18 20 20 20 19 19 21 21 20 20 19 19 21 22
-1 -0 -0 1 1 6 7 8 8 11 14 13 14 13 17 18 14 18 17 10 10 10 14 12 14 16 18 20 20 20 17 16 16 18 19 22 23 20 20 18 20 20 20 20 20 20 20 20 21 21 21 23 23 23
1 1 0 1 4 6 8 10 10 11 11 13 13 12 17 14 16 17 16 10 11 12 14 19 19 16 14 12 18 15 15 14 15 16 17 19 24 19 21 22 19 19 20 22 21 23 23 22 22 22 25 26 27 25
2 0 3 2 7 7 9 9 9 9 12 14 13 12 18 18 19 16 12 14 16 18 19 21 19 16 13 14 20 19 18 18 18 17 18 17 20 21 22 21 19 22 22 23 20 22 23 22 21 22 25 26 25 25
1 3 7 7 11 12 13 9 12 11 15 15 11 15 16 16 15 11 18 16 19 21 22 22 19 17 15 17 19 19 20 16 18 18 18 20 22 22 21 22 21 22 23 23 22 22 23 23 24 26 26 25 25 27
3 9 12 12 11 14 11 12 9 11 12 13 14 16 14 16 14 18 20 22 22 17 19 22 17 16 15 16 19 21 21 18 19 20 19 18 20 23 22 21 22 22 20 20 20 23 24 27 27 24 28 29 30 29
11 12 13 15 12 12 13 13 13 14 17 17 16 18 17 16 21 22 22 21 19 17 20 17 18 18 18 23 20 21 21 16 17 18 22 20 21 20 20 20 21 22 22 22 25 26 27 30 30 28 27 29 24 26
14 13 14 15 14 13 14 17 16 16 16 17 18 17 18 21 22 22 19 22 23 21 20 17 19 20 20 20 19 20 20 19 16 19 22 19 18 19 21 22 23 23 23 25 25 28 27 27 27 25 27 26 27 29
16 17 13 10 11 11 14 14 13 15 18 19 19 21 21 23 24 20 19 20 20 21 18 17 16 16 18 20 20 20 20 19 19 19 19 20 20 20 19 21 23 22 23 24 26 26 26 26 28 28 28 29 25 24
16 15 17 17 16 15 17 19 19 18 18 16 17 20 21 21 19 20 20 20 21 18 17 17 17 16 17 18 20 20 21 21 21 20 20 21 23 26 26 24 23 20 25 28 28 31 30 28 29 31 29 26 26 31
19 17 16 20 19 19 19 19 19 19 18 18 20 21 21 19 22 21 20 20 19 17 18 20 23 22 22 22 24 23 20 20 22 25 27 29 28 26 29 28 26 28 28 27 24 26 25 27 28 27 29 29 33 36
19 17 20 24 21 20 22 21 22 24 21 21 20 20 21 23 24 23 21 19 18 19 19 19 21 21 21 21 23 24 29 29 25 21 22 25 23 24 27 27 28 31 31 26 26 27 21 27 26 30 30 32 33 32
16 17 21 24 25 26 26 28 30 28 29 28 30 25 24 26 23 25 22 23 24 23 21 22 25 23 21 22 21 23 23 26 28 25 24 23 23 22 24 25 26 28 27 28 29 31 31 31 31 31 31 32 33 33
21 19 19 20 22 24 27 28 30 29 31 29 28 31 28 26 26 25 24 21 19 22 25 21 21 23 23 22 22 22 22 20 22 23 23 23 22 22 23 25 27 26 26 28 32 31 30 28 30 30 31 32 34 34
25 26 28 28 26 26 28 28 27 28 29 29 30 32 32 28 26 26 24 25 22 21 21 21 23 21 21 21 21 23 23 23 23 20 21 21 23 23 24 25 25 25 25 26 27 28 28 29 31 32 33 34 35 36